W4HSV Weather Reports


time (UTC)temp
F
wind
direction
speed
knots
gust
knots
rain 1hr
in
rain 24hr
in
rain mn
in
humidity
%
barometer
mb
20260508030125 57 299 0.0 0.0 0.00 0.35 0.31 80 1015.3
20260508030017 57 299 0.0 0.0 0.00 0.35 0.31 80 1015.2
20260508025924 57 299 0.0 0.0 0.00 0.35 0.31 80 1015.2
20260508025813 57 299 0.0 0.0 0.00 0.35 0.31 80 1015.3
20260508025721 57 299 0.0 0.0 0.00 0.35 0.31 80 1015.3
20260508025629 57 299 0.0 0.0 0.00 0.35 0.31 80 1015.3
20260508025516 57 299 0.0 0.0 0.00 0.35 0.31 80 1015.2
20260508025427 57 299 0.0 0.0 0.00 0.35 0.31 80 1015.2
20260508025315 58 299 0.0 1.7 0.00 0.35 0.31 80 1015.2
20260508025243 58 299 0.0 1.7 0.00 0.35 0.31 80 1015.2
20260508025130 58 299 0.0 1.7 0.00 0.35 0.31 80 1015.2
20260508025045 58 299 0.0 1.7 0.00 0.35 0.31 80 1015.2
20260508024818 58 299 0.0 1.7 0.00 0.35 0.31 79 1015.1
20260508024724 58 299 0.0 1.7 0.00 0.35 0.31 79 1015.1
20260508024612 58 299 0.0 1.7 0.00 0.35 0.31 79 1015.1
20260508024520 58 299 0.9 1.7 0.00 0.35 0.31 78 1015.1
20260508024429 58 299 0.9 1.7 0.00 0.35 0.31 78 1015.1
20260508024321 58 333 1.7 1.7 0.00 0.39 0.31 77 1015.1
20260508024228 58 333 0.9 1.7 0.00 0.39 0.31 77 1015.1
20260508024116 58 333 0.9 1.7 0.00 0.39 0.31 77 1015.0
20260508024024 58 333 1.7 1.7 0.00 0.39 0.31 77 1015.0
20260508023913 58 333 1.7 1.7 0.00 0.39 0.31 76 1015.1
20260508023824 58 333 1.7 1.7 0.00 0.39 0.31 76 1015.1
20260508023711 58 333 1.7 1.7 0.00 0.39 0.31 76 1015.1
20260508023638 58 333 0.9 1.7 0.00 0.39 0.31 76 1015.1
20260508023609 58 333 0.9 1.7 0.00 0.39 0.31 76 1015.1
20260508023321 59 333 0.9 1.7 0.00 0.39 0.31 76 1015.0
20260508023211 59 333 0.9 1.7 0.00 0.39 0.31 75 1014.9
20260508023118 59 333 0.0 0.9 0.00 0.39 0.31 75 1014.9
20260508023026 59 333 0.0 0.9 0.00 0.39 0.31 75 1014.9
20260508022913 59 333 0.0 0.9 0.00 0.39 0.31 75 1014.9
20260508022820 59 333 0.0 0.9 0.00 0.39 0.31 75 1015.0
20260508022748 59 333 0.0 0.9 0.00 0.39 0.31 75 1015.0
20260508022618 59 333 0.0 0.0 0.00 0.39 0.31 75 1015.0
20260508022527 59 333 0.0 0.0 0.00 0.39 0.31 75 1015.0
20260508022414 59 333 0.0 0.0 0.00 0.39 0.31 75 1015.0
20260508022341 59 333 0.0 0.0 0.00 0.39 0.31 75 1014.9
20260508022228 59 333 0.0 0.0 0.00 0.39 0.31 74 1014.9
20260508022116 59 333 0.0 0.0 0.00 0.39 0.31 75 1014.9
20260508022051 59 333 0.0 0.0 0.00 0.39 0.31 75 1014.9
20260508021843 59 333 0.0 0.0 0.00 0.39 0.31 74 1015.0
20260508021729 59 333 0.0 0.0 0.00 0.39 0.31 74 1014.9
20260508021617 59 333 0.0 0.0 0.00 0.39 0.31 74 1014.9
20260508021544 59 333 0.0 0.0 0.00 0.39 0.31 74 1014.9
20260508021413 59 333 0.0 0.0 0.00 0.39 0.31 74 1014.9
20260508021322 59 333 0.0 0.9 0.00 0.39 0.31 74 1014.9
20260508021230 59 333 0.0 1.7 0.00 0.39 0.31 74 1014.9
20260508021117 60 333 0.0 1.7 0.00 0.39 0.31 74 1014.7
20260508021025 60 333 0.0 1.7 0.00 0.39 0.31 74 1014.7
20260508020916 60 333 0.0 1.7 0.00 0.39 0.31 74 1014.7
20260508020824 60 333 0.0 1.7 0.00 0.39 0.31 74 1014.7
20260508020731 60 333 0.0 1.7 0.00 0.39 0.31 73 1014.8
20260508020700 60 333 0.9 1.7 0.00 0.39 0.31 73 1014.7
20260508020547 60 331 0.9 1.7 0.00 0.39 0.31 73 1014.7
20260508020321 60 329 0.9 1.7 0.00 0.39 0.31 73 1014.8
20260508020213 60 298 0.0 0.9 0.00 0.39 0.31 73 1014.9
20260508020120 60 294 0.0 0.9 0.00 0.39 0.31 73 1014.8
20260508020028 60 294 0.0 0.0 0.00 0.39 0.31 73 1014.8
20260508015915 60 294 0.0 0.0 0.00 0.39 0.31 73 1014.8
20260508015822 60 294 0.0 0.0 0.00 0.39 0.31 73 1014.8
20260508015713 60 294 0.0 0.0 0.00 0.39 0.31 73 1014.8
20260508015620 60 294 0.0 0.0 0.00 0.39 0.31 72 1014.8
20260508015527 60 294 0.0 0.0 0.00 0.39 0.31 72 1014.8
20260508015414 60 294 0.0 0.0 0.00 0.39 0.31 72 1014.8
20260508015320 60 297 0.0 0.0 0.00 0.39 0.31 72 1014.8
20260508015211 60 297 0.0 0.0 0.00 0.39 0.31 72 1014.8
20260508015138 60 297 0.0 0.0 0.00 0.39 0.31 72 1014.8
20260508015108 60 297 0.0 0.0 0.00 0.39 0.31 73 1014.6
20260508014820 60 297 0.0 0.0 0.00 0.39 0.31 73 1014.5
20260508014726 60 297 0.0 0.0 0.00 0.39 0.31 73 1014.5
20260508014619 60 297 0.0 0.0 0.00 0.39 0.31 73 1014.6
20260508014526 61 297 0.0 0.0 0.00 0.39 0.31 72 1014.6
20260508014413 61 297 0.0 0.0 0.00 0.39 0.31 72 1014.6
20260508014341 61 297 0.0 0.0 0.00 0.39 0.31 72 1014.6
20260508014227 61 297 0.0 0.0 0.00 0.39 0.31 72 1014.6
20260508014114 61 297 0.0 0.0 0.00 0.39 0.31 72 1014.5
20260508014026 61 297 0.0 0.0 0.00 0.39 0.31 72 1014.5
20260508013914 61 297 0.0 0.0 0.00 0.39 0.31 71 1014.6
20260508013820 61 297 0.0 0.0 0.00 0.39 0.31 71 1014.6
20260508013748 61 297 0.0 0.9 0.00 0.39 0.31 71 1014.6
20260508013614 61 297 0.0 1.7 0.00 0.39 0.31 71 1014.5
20260508013548 61 297 0.0 1.7 0.00 0.39 0.31 70 1014.5
20260508013341 61 297 0.0 1.7 0.00 0.39 0.31 70 1014.5
20260508013228 61 297 0.0 1.7 0.00 0.39 0.31 70 1014.5
20260508013137 61 297 0.0 1.7 0.00 0.39 0.31 70 1014.5
20260508013023 61 297 0.0 1.7 0.00 0.39 0.31 70 1014.5
20260508012951 61 297 0.9 1.7 0.00 0.39 0.31 70 1014.4
20260508012837 61 297 0.9 1.7 0.00 0.39 0.31 69 1014.6
20260508012727 61 16 0.0 1.7 0.00 0.39 0.31 69 1014.6
20260508012615 61 16 0.0 1.7 0.00 0.39 0.31 68 1014.4
20260508012523 61 16 0.0 1.7 0.00 0.39 0.31 68 1014.4
20260508012430 62 16 0.0 1.7 0.00 0.39 0.31 68 1014.5
20260508012317 62 16 0.0 1.7 0.00 0.39 0.31 68 1014.4
20260508012225 62 16 0.9 1.7 0.00 0.39 0.31 68 1014.4
20260508012157 62 16 0.9 1.7 0.00 0.39 0.31 68 1014.4
20260508012108 62 16 0.9 2.6 0.00 0.39 0.31 68 1014.4
20260508011820 62 16 0.9 2.6 0.00 0.39 0.31 68 1014.3
20260508011748 62 16 1.7 2.6 0.00 0.39 0.31 68 1014.3
20260508011613 62 16 1.7 2.6 0.00 0.39 0.31 67 1014.3
20260508011526 62 16 1.7 2.6 0.00 0.39 0.31 67 1014.3
20260508011413 62 16 1.7 2.6 0.00 0.39 0.31 67 1014.2
20260508011322 62 16 1.7 2.6 0.00 0.39 0.31 66 1014.2
20260508011230 62 16 1.7 2.6 0.00 0.39 0.31 66 1014.3
20260508011119 63 19 1.7 2.6 0.00 0.39 0.31 66 1014.1
20260508011026 63 11 1.7 2.6 0.00 0.39 0.31 66 1014.1
20260508010917 63 360 1.7 2.6 0.00 0.39 0.31 65 1014.1
20260508010824 63 360 1.7 2.6 0.00 0.39 0.31 65 1014.1
20260508010712 63 346 1.7 2.6 0.00 0.39 0.31 64 1014.2
20260508010619 63 334 1.7 2.6 0.00 0.39 0.31 64 1014.2
20260508010552 63 331 1.7 2.6 0.00 0.39 0.31 64 1014.2
20260508010325 63 347 1.7 2.6 0.00 0.39 0.31 63 1014.1
20260508010232 63 355 1.7 2.6 0.00 0.39 0.31 63 1014.1
20260508010118 63 355 1.7 2.6 0.00 0.39 0.31 62 1014.0
20260508010026 63 335 1.7 2.6 0.00 0.39 0.31 62 1014.0
20260508005912 63 332 1.7 2.6 0.00 0.39 0.31 62 1014.0
20260508005823 63 333 1.7 2.6 0.00 0.39 0.31 62 1014.0
20260508005712 63 329 1.7 2.6 0.00 0.39 0.31 63 1014.0
20260508005619 64 319 1.7 2.6 0.00 0.39 0.31 63 1014.0
20260508005526 64 322 0.9 2.6 0.00 0.39 0.31 62 1014.0
20260508005413 64 319 0.9 2.6 0.00 0.39 0.31 63 1014.1
20260508005325 64 319 1.7 2.6 0.00 0.39 0.31 63 1014.1
20260508005212 64 317 1.7 2.6 0.00 0.39 0.31 63 1014.2
20260508005120 64 314 0.9 2.6 0.00 0.39 0.31 63 1014.1
20260508005050 64 298 0.9 1.7 0.00 0.39 0.31 63 1014.1
20260508004824 64 298 1.7 1.7 0.00 0.39 0.31 63 1014.1
20260508004716 64 297 0.9 1.7 0.00 0.39 0.31 63 1014.2
20260508004624 64 297 0.9 1.7 0.00 0.39 0.31 63 1014.2
20260508004531 64 292 1.7 1.7 0.00 0.39 0.31 63 1014.3
20260508004419 64 298 0.9 1.7 0.00 0.39 0.31 63 1014.2
20260508004326 64 298 0.9 1.7 0.00 0.39 0.31 63 1014.2
20260508004216 64 289 0.9 1.7 0.00 0.39 0.31 62 1014.2
20260508004125 64 294 0.9 1.7 0.00 0.39 0.31 62 1014.2
20260508004011 64 294 0.9 1.7 0.00 0.39 0.31 61 1014.1
20260508003918 65 290 0.9 1.7 0.00 0.39 0.31 61 1014.2
20260508003825 65 291 0.9 2.6 0.00 0.39 0.31 61 1014.2
20260508003712 65 291 0.9 2.6 0.00 0.39 0.31 61 1014.2
20260508003624 65 293 0.9 2.6 0.00 0.39 0.31 61 1014.2
20260508003556 65 294 0.9 3.5 0.00 0.39 0.31 61 1014.1
20260508003330 65 311 0.9 3.5 0.00 0.39 0.31 61 1014.1
20260508003217 65 311 0.9 3.5 0.00 0.39 0.31 60 1014.0
20260508003129 65 311 0.9 4.3 0.00 0.39 0.31 60 1014.0
20260508003018 65 312 1.7 4.3 0.00 0.39 0.31 59 1014.1
20260508002925 65 316 1.7 4.3 0.00 0.39 0.31 59 1014.1
20260508002813 65 310 1.7 4.3 0.00 0.39 0.31 57 1014.1
20260508002740 65 321 2.6 4.3 0.00 0.39 0.31 57 1014.0
20260508002625 65 317 2.6 4.3 0.00 0.39 0.31 57 1014.0
20260508002517 65 308 2.6 4.3 0.00 0.39 0.31 57 1014.1
20260508002444 65 298 2.6 4.3 0.00 0.39 0.31 57 1014.1
20260508002350 65 321 2.6 4.3 0.00 0.39 0.31 57 1014.1
20260508002217 65 333 2.6 4.3 0.00 0.39 0.31 56 1014.0
20260508002145 65 309 2.6 3.5 0.00 0.39 0.31 56 1014.0
20260508002054 65 318 2.6 3.5 0.00 0.39 0.31 56 1013.9
20260508001812 66 299 1.7 3.5 0.00 0.39 0.31 56 1013.9
20260508001719 66 320 1.7 3.5 0.00 0.39 0.31 56 1014.0
20260508001645 66 326 1.7 3.5 0.00 0.39 0.31 55 1014.0
20260508001531 66 321 1.7 4.3 0.00 0.39 0.31 56 1013.9
20260508001418 66 302 2.6 4.3 0.00 0.39 0.31 55 1013.9
20260508001325 66 328 2.6 4.3 0.00 0.39 0.31 55 1013.9
20260508001217 66 320 1.7 4.3 0.00 0.39 0.31 55 1013.8
20260508001124 66 320 2.6 4.3 0.00 0.39 0.31 55 1013.8
20260508001032 66 337 2.6 4.3 0.00 0.39 0.31 55 1013.8
20260508000918 66 305 1.7 4.3 0.00 0.39 0.31 55 1013.8
20260508000845 66 312 2.6 4.3 0.00 0.39 0.31 55 1013.8
20260508000733 66 321 2.6 4.3 0.00 0.39 0.31 54 1013.8
20260508000623 66 318 1.7 3.5 0.00 0.39 0.31 54 1013.8
20260508000553 66 288 1.7 3.5 0.00 0.39 0.31 54 1013.8
20260508000327 66 303 1.7 5.2 0.00 0.39 0.31 54 1013.7
20260508000215 66 321 1.7 5.2 0.00 0.39 0.31 54 1013.7
20260508000122 67 332 2.6 7.0 0.00 0.39 0.31 54 1013.7
20260508000014 67 310 2.6 7.0 0.00 0.39 0.31 54 1013.7
20260507235922 67 305 2.6 7.0 0.00 0.39 0.31 54 1013.7
20260507235828 67 300 2.6 7.0 0.00 0.39 0.31 54 1013.6
20260507235715 67 327 2.6 7.0 0.00 0.39 0.31 53 1013.5
20260507235622 67 319 3.5 7.0 0.00 0.39 0.31 53 1013.5
20260507235535 67 311 4.3 7.0 0.00 0.39 0.31 54 1013.5
20260507235422 67 323 4.3 7.0 0.00 0.39 0.31 53 1013.5
20260507235329 67 333 3.5 7.0 0.00 0.39 0.31 53 1013.5
20260507235215 67 321 3.5 5.2 0.00 0.39 0.31 53 1013.4
20260507235124 67 325 3.5 5.2 0.00 0.39 0.31 53 1013.4
20260507235059 67 321 4.3 5.2 0.00 0.39 0.31 53 1013.3
20260507234833 67 340 3.5 5.2 0.00 0.39 0.31 53 1013.5
20260507234740 67 322 2.6 5.2 0.00 0.39 0.31 53 1013.5
20260507234646 67 342 3.5 5.2 0.00 0.39 0.31 53 1013.5
20260507234532 67 310 3.5 6.1 0.00 0.39 0.31 53 1013.5
20260507234418 67 297 3.5 5.2 0.00 0.46 0.31 53 1013.5
20260507234325 67 300 3.5 7.0 0.00 0.46 0.31 53 1013.5
20260507234233 67 319 3.5 7.0 0.00 0.46 0.31 53 1013.5
20260507234123 67 311 3.5 7.0 0.00 0.46 0.31 53 1013.5
20260507234030 67 290 2.6 7.0 0.00 0.46 0.31 53 1013.5
20260507233918 67 333 3.5 7.0 0.00 0.46 0.31 53 1013.5
20260507233825 67 298 3.5 7.0 0.00 0.46 0.31 53 1013.5
20260507233711 67 344 4.3 8.7 0.00 0.46 0.31 53 1013.5
20260507233622 67 320 4.3 8.7 0.00 0.46 0.31 52 1013.5
20260507233552 67 316 4.3 8.7 0.00 0.46 0.31 52 1013.5
20260507233325 67 321 4.3 8.7 0.00 0.46 0.31 52 1013.5
20260507233212 67 325 3.5 8.7 0.00 0.46 0.31 52 1013.4
20260507233120 67 315 3.5 8.7 0.00 0.46 0.31 52 1013.5
20260507233010 67 332 4.3 8.7 0.00 0.46 0.31 52 1013.4
20260507232918 67 308 4.3 8.7 0.00 0.46 0.31 52 1013.3
20260507232827 67 323 4.3 8.7 0.00 0.46 0.31 52 1013.3
20260507232714 67 344 4.3 7.0 0.00 0.46 0.31 52 1013.4
20260507232620 68 324 5.2 7.0 0.00 0.46 0.31 52 1013.4
20260507232513 68 319 5.2 7.0 0.00 0.46 0.31 52 1013.4
20260507232441 68 344 4.3 7.0 0.00 0.46 0.31 51 1013.4
20260507232327 68 325 3.5 7.8 0.00 0.46 0.31 51 1013.4
20260507232235 68 298 3.5 7.8 0.00 0.46 0.31 52 1013.5
20260507232122 68 320 3.5 8.7 0.00 0.46 0.31 52 1013.5
20260507232056 68 350 4.3 8.7 0.00 0.46 0.31 52 1013.5
20260507231830 68 344 4.3 8.7 0.00 0.46 0.31 51 1013.6
20260507231719 68 355 4.3 8.7 0.00 0.46 0.31 52 1013.6
20260507231625 68 329 5.2 8.7 0.00 0.46 0.31 52 1013.6
20260507231513 68 331 4.3 8.7 0.00 0.46 0.31 51 1013.5
20260507231420 68 355 3.5 8.7 0.00 0.46 0.31 51 1013.4
20260507231352 68 5 4.3 8.7 0.00 0.46 0.31 51 1013.4
20260507231217 68 303 6.1 8.7 0.00 0.46 0.31 51 1013.5
20260507231145 68 318 6.1 8.7 0.00 0.46 0.31 51 1013.5
20260507231012 68 334 5.2 8.7 0.00 0.46 0.31 51 1013.5
20260507230921 68 360 5.2 10.4 0.00 0.46 0.31 51 1013.6
20260507230829 69 322 4.3 10.4 0.00 0.46 0.31 50 1013.6
20260507230721 69 346 4.3 10.4 0.00 0.46 0.31 51 1013.7
20260507230628 69 313 5.2 10.4 0.00 0.46 0.31 50 1013.6
20260507230600 69 325 6.1 10.4 0.00 0.46 0.31 50 1013.6
20260507230313 69 315 7.0 10.4 0.00 0.46 0.31 50 1013.5
20260507230224 69 298 6.1 10.4 0.00 0.46 0.31 50 1013.5
20260507230113 69 324 7.0 10.4 0.00 0.46 0.31 52 1013.4
20260507230021 69 346 6.1 10.4 0.00 0.46 0.31 52 1013.5
20260507225928 69 278 3.5 9.6 0.00 0.46 0.31 52 1013.5
20260507225817 69 340 3.5 10.4 0.00 0.46 0.31 52 1013.4
20260507225744 69 302 4.3 11.3 0.00 0.46 0.31 52 1013.4
20260507225612 69 350 5.2 11.3 0.00 0.46 0.31 52 1013.4
20260507225521 69 327 5.2 11.3 0.00 0.46 0.31 52 1013.4
20260507225430 69 360 5.2 11.3 0.00 0.46 0.31 52 1013.4
20260507225317 69 347 5.2 11.3 0.00 0.46 0.31 51 1013.5
20260507225225 69 311 7.0 11.3 0.00 0.46 0.31 50 1013.5
20260507225115 69 308 7.8 11.3 0.00 0.46 0.31 50 1013.5
20260507225045 69 344 7.8 11.3 0.00 0.46 0.31 51 1013.5
20260507224819 70 294 6.1 9.6 0.00 0.46 0.31 51 1013.4
20260507224725 70 307 6.1 9.6 0.00 0.46 0.31 51 1013.4
20260507224634 70 322 6.1 9.6 0.00 0.46 0.31 50 1013.4
20260507224524 70 330 5.2 9.6 0.00 0.46 0.31 51 1013.4
20260507224432 70 327 6.1 9.6 0.00 0.55 0.31 51 1013.4
20260507224319 70 317 6.1 9.6 0.00 0.55 0.31 50 1013.5
20260507224227 70 320 7.0 9.6 0.00 0.55 0.31 50 1013.5
20260507224114 70 302 6.1 9.6 0.00 0.55 0.31 51 1013.5
20260507224042 70 325 5.2 10.4 0.00 0.55 0.31 51 1013.5
20260507223948 70 326 5.2 10.4 0.00 0.55 0.31 51 1013.6
20260507223818 70 341 3.5 10.4 0.00 0.55 0.31 51 1013.5
20260507223725 70 322 4.3 10.4 0.00 0.55 0.31 51 1013.5
20260507223614 70 336 6.1 10.4 0.00 0.55 0.31 50 1013.6
20260507223545 70 317 6.1 10.4 0.00 0.55 0.31 50 1013.6
20260507223321 71 319 7.0 10.4 0.00 0.55 0.31 50 1013.5
20260507223229 71 320 6.1 10.4 0.00 0.55 0.31 50 1013.5
20260507223118 71 319 6.1 9.6 0.00 0.55 0.31 51 1013.5
20260507223025 71 338 5.2 9.6 0.00 0.55 0.31 51 1013.5
20260507222911 71 348 4.3 8.7 0.00 0.55 0.31 52 1013.5
20260507222820 71 306 4.3 8.7 0.00 0.55 0.31 51 1013.4
20260507222711 71 325 4.3 8.7 0.00 0.55 0.31 51 1013.4
20260507222619 71 342 4.3 9.6 0.00 0.55 0.31 50 1013.4
20260507222525 71 307 4.3 9.6 0.00 0.55 0.31 50 1013.4
20260507222432 71 329 4.3 9.6 0.00 0.55 0.31 50 1013.4
20260507222319 71 275 4.3 9.6 0.00 0.55 0.31 51 1013.3
20260507222226 71 302 5.2 9.6 0.00 0.55 0.31 51 1013.3
20260507222137 71 279 5.2 9.6 0.00 0.55 0.31 50 1013.3
20260507222046 71 248 5.2 9.6 0.00 0.55 0.31 52 1013.2
20260507221841 71 331 6.1 9.6 0.00 0.55 0.31 52 1013.3
20260507221727 71 309 6.1 9.6 0.00 0.55 0.31 51 1013.3
20260507221634 71 339 4.3 8.7 0.00 0.55 0.31 51 1013.3
20260507221525 71 329 4.3 8.7 0.00 0.55 0.31 51 1013.3
20260507221411 71 331 4.3 9.6 0.00 0.55 0.31 51 1013.2
20260507221320 72 329 3.5 9.6 0.00 0.55 0.31 51 1013.2
20260507221227 72 5 5.2 9.6 0.00 0.55 0.31 51 1013.2
20260507221113 72 331 5.2 9.6 0.00 0.55 0.31 50 1013.3
20260507221020 72 313 3.5 9.6 0.00 0.55 0.31 50 1013.3
20260507220931 72 334 2.6 9.6 0.00 0.55 0.31 49 1013.3
20260507220818 72 310 4.3 9.6 0.00 0.55 0.31 49 1013.4
20260507220725 72 331 5.2 9.6 0.00 0.55 0.31 49 1013.4
20260507220612 72 348 6.1 9.6 0.00 0.55 0.31 49 1013.4
20260507220548 72 322 5.2 8.7 0.00 0.55 0.31 49 1013.4
20260507220319 72 326 5.2 8.7 0.00 0.55 0.31 49 1013.4
20260507220227 72 338 4.3 8.7 0.00 0.55 0.31 50 1013.4
20260507220115 72 268 2.6 7.8 0.00 0.55 0.31 50 1013.5
20260507220021 72 325 2.6 9.6 0.00 0.55 0.31 50 1013.5
20260507215913 72 318 2.6 9.6 0.00 0.55 0.31 51 1013.3
20260507215821 72 325 3.5 9.6 0.00 0.55 0.31 52 1013.3
20260507215727 72 329 3.5 9.6 0.00 0.55 0.31 50 1013.3
20260507215615 72 26 3.5 9.6 0.00 0.55 0.31 50 1013.3
20260507215522 72 5 3.5 9.6 0.00 0.55 0.31 50 1013.3
20260507215430 72 343 4.3 9.6 0.00 0.55 0.31 50 1013.3
20260507215320 72 346 6.1 9.6 0.00 0.55 0.31 51 1013.3
20260507215228 72 339 5.2 9.6 0.00 0.55 0.31 52 1013.3
20260507215136 72 355 5.2 10.4 0.00 0.55 0.31 51 1013.3
20260507215107 72 338 4.3 10.4 0.00 0.55 0.31 51 1013.2
20260507214840 72 336 4.3 10.4 0.00 0.55 0.31 51 1013.4
20260507214724 72 294 5.2 10.4 0.00 0.55 0.31 50 1013.4
20260507214617 72 304 5.2 10.4 0.00 0.55 0.31 50 1013.4
20260507214523 72 284 5.2 10.4 0.00 0.55 0.31 50 1013.4
20260507214430 72 302 6.1 10.4 0.00 0.55 0.31 50 1013.3
20260507214318 73 303 5.2 10.4 0.00 0.82 0.31 50 1013.2
20260507214226 72 274 3.5 10.4 0.00 0.82 0.31 51 1013.2
20260507214116 72 323 3.5 10.4 0.00 0.82 0.31 51 1013.1
20260507214045 72 333 4.3 10.4 0.00 0.82 0.31 50 1013.1
20260507213911 72 316 4.3 10.4 0.00 0.82 0.31 51 1013.2
20260507213818 72 329 4.3 10.4 0.00 0.82 0.31 50 1013.2
20260507213745 72 323 4.3 10.4 0.00 0.82 0.31 50 1013.2
20260507213612 72 317 4.3 10.4 0.00 0.82 0.31 50 1013.2
20260507213546 72 319 4.3 10.4 0.00 0.82 0.31 52 1013.2
20260507213319 72 325 4.3 9.6 0.00 0.82 0.31 52 1013.2
20260507213227 72 331 4.3 9.6 0.00 0.82 0.31 52 1013.2
20260507213114 72 355 4.3 9.6 0.00 0.82 0.31 52 1013.3
20260507213023 72 355 6.1 9.6 0.00 0.82 0.31 51 1013.3
20260507212915 72 342 7.0 9.6 0.00 0.82 0.31 51 1013.3
20260507212822 72 360 6.1 8.7 0.00 0.82 0.31 50 1013.3
20260507212729 72 331 3.5 8.7 0.00 0.82 0.31 50 1013.3
20260507212617 72 294 3.5 9.6 0.00 0.82 0.31 49 1013.2
20260507212525 72 9 4.3 12.2 0.00 0.82 0.31 49 1013.2
20260507212417 72 76 5.2 12.2 0.00 0.82 0.31 50 1013.3
20260507212344 72 279 5.2 12.2 0.00 0.82 0.31 50 1013.3
20260507212251 72 329 6.1 12.2 0.00 0.82 0.31 50 1013.3
20260507212117 72 294 5.2 12.2 0.00 0.82 0.31 51 1013.3
20260507212047 72 307 6.1 12.2 0.00 0.82 0.31 51 1013.3
20260507211821 72 314 7.0 12.2 0.00 0.82 0.31 51 1013.3
20260507211712 72 320 5.2 12.2 0.00 0.82 0.31 51 1013.2
20260507211640 72 304 4.3 9.6 0.00 0.82 0.31 51 1013.1
20260507211527 72 319 4.3 9.6 0.00 0.82 0.31 51 1013.1
20260507211413 72 275 5.2 11.3 0.00 0.82 0.31 50 1013.3
20260507211321 72 309 5.2 11.3 0.00 0.82 0.31 51 1013.3
20260507211212 72 267 5.2 11.3 0.00 0.82 0.31 50 1013.3
20260507211118 72 296 6.1 11.3 0.00 0.82 0.31 51 1013.2
20260507211024 72 253 5.2 11.3 0.00 0.82 0.31 51 1013.2
20260507210912 72 243 5.2 11.3 0.00 0.82 0.31 51 1013.3
20260507210820 72 292 4.3 11.3 0.00 0.82 0.31 51 1013.2
20260507210727 72 346 5.2 11.3 0.00 0.82 0.31 52 1013.2
20260507210620 72 304 4.3 11.3 0.00 0.82 0.31 52 1013.2
20260507210548 72 338 4.3 11.3 0.00 0.82 0.31 51 1013.2
20260507210322 72 300 4.3 11.3 0.00 0.82 0.31 51 1013.2
20260507210229 72 311 6.1 11.3 0.00 0.82 0.31 50 1013.3
20260507210116 72 311 6.1 11.3 0.00 0.82 0.31 50 1013.2
20260507210027 72 309 5.2 11.3 0.00 0.82 0.31 52 1013.2
20260507205914 72 308 5.2 8.7 0.00 0.82 0.31 54 1013.2
20260507205822 71 5 5.2 8.7 0.00 0.82 0.31 54 1013.2
20260507205711 71 349 5.2 7.8 0.00 0.82 0.31 55 1013.2
20260507205619 71 355 5.2 7.8 0.00 0.82 0.31 54 1013.2
20260507205510 71 13 4.3 7.8 0.00 0.82 0.31 54 1013.4
20260507205417 71 16 3.5 7.8 0.00 0.82 0.31 54 1013.3
20260507205326 71 344 3.5 8.7 0.00 0.82 0.31 54 1013.3
20260507205234 71 319 3.5 8.7 0.00 0.82 0.31 56 1013.3
20260507205119 71 360 3.5 8.7 0.00 0.82 0.31 53 1013.4
20260507205054 71 360 3.5 8.7 0.00 0.82 0.31 53 1013.4
20260507204828 71 355 3.5 8.7 0.00 0.82 0.31 54 1013.4
20260507204715 71 310 4.3 8.7 0.00 0.82 0.31 54 1013.3
20260507204623 71 332 5.2 8.7 0.00 0.82 0.31 54 1013.3
20260507204511 70 338 5.2 8.7 0.00 0.82 0.31 54 1013.4
20260507204421 70 328 5.2 8.7 0.00 0.82 0.31 54 1013.4
20260507204328 70 311 5.2 8.7 0.00 1.21 0.31 54 1013.3
20260507204216 70 243 5.2 8.7 0.00 1.21 0.31 55 1013.2
20260507204124 70 294 4.3 8.7 0.00 1.21 0.31 55 1013.2
20260507204012 70 331 4.3 8.7 0.00 1.21 0.31 56 1013.3
20260507203919 70 297 3.5 8.7 0.00 1.21 0.31 57 1013.3
20260507203830 70 355 3.5 8.7 0.00 1.21 0.31 57 1013.3
20260507203738 70 336 3.5 8.7 0.00 1.21 0.31 56 1013.2
20260507203706 70 360 5.2 9.6 0.00 1.21 0.31 54 1013.3
20260507203614 70 355 5.2 10.4 0.00 1.21 0.31 54 1013.3
20260507203347 70 321 6.1 10.4 0.00 1.21 0.31 54 1013.3
20260507203234 70 319 6.1 11.3 0.00 1.21 0.31 54 1013.3
20260507203124 70 331 5.2 11.3 0.00 1.21 0.31 53 1013.3
20260507203011 70 288 6.1 11.3 0.00 1.21 0.31 52 1013.4
20260507202919 71 323 7.0 11.3 0.00 1.21 0.31 53 1013.4
20260507202825 71 325 7.8 11.3 0.00 1.21 0.31 53 1013.4
20260507202713 71 347 7.0 11.3 0.00 1.21 0.31 53 1013.4
20260507202624 71 335 7.8 11.3 0.00 1.21 0.31 54 1013.4
20260507202512 71 350 8.7 11.3 0.00 1.21 0.31 54 1013.4
20260507202420 71 335 8.7 11.3 0.00 1.21 0.31 54 1013.3
20260507202347 71 328 7.0 11.3 0.00 1.21 0.31 55 1013.3
20260507202213 71 355 4.3 8.7 0.00 1.21 0.31 54 1013.3
20260507202121 71 302 3.5 8.7 0.00 1.21 0.31 53 1013.3
20260507202056 71 312 3.5 10.4 0.00 1.21 0.31 53 1013.3
20260507201830 71 342 3.5 10.4 0.00 1.21 0.31 54 1013.4
20260507201718 70 319 4.3 10.4 0.00 1.21 0.31 55 1013.4
20260507201646 70 330 4.3 10.4 0.00 1.21 0.31 55 1013.4
20260507201551 70 298 5.2 10.4 0.00 1.21 0.31 55 1013.4
20260507201421 70 319 6.1 10.4 0.00 1.21 0.31 54 1013.3
20260507201328 70 288 7.0 10.4 0.00 1.21 0.31 55 1013.5
20260507201216 70 284 6.1 10.4 0.00 1.21 0.31 55 1013.4
20260507201123 70 277 4.3 9.6 0.00 1.21 0.31 57 1013.4
20260507201029 70 267 3.5 9.6 0.00 1.21 0.31 57 1013.4
20260507200916 70 350 3.5 9.6 0.00 1.21 0.31 55 1013.5
20260507200847 70 333 3.5 9.6 0.00 1.21 0.31 54 1013.5
20260507200713 70 332 6.1 9.6 0.00 1.21 0.31 54 1013.5
20260507200622 70 325 6.1 10.4 0.00 1.21 0.31 53 1013.5
20260507200552 70 339 6.1 10.4 0.00 1.21 0.31 54 1013.5
20260507200311 71 338 5.2 10.4 0.00 1.21 0.31 55 1013.4
20260507200219 71 350 5.2 10.4 0.00 1.21 0.31 55 1013.5
20260507200127 71 324 5.2 11.3 0.00 1.21 0.31 55 1013.5
20260507200013 71 29 7.0 11.3 0.00 1.21 0.31 55 1013.5
20260507195940 71 355 7.0 11.3 0.00 1.21 0.31 56 1013.4
20260507195828 71 324 7.8 11.3 0.00 1.21 0.31 57 1013.4
20260507195720 71 321 7.0 11.3 0.00 1.21 0.31 58 1013.3
20260507195628 71 21 6.1 11.3 0.00 1.21 0.31 59 1013.3
20260507195517 71 345 7.0 11.3 0.00 1.21 0.31 57 1013.3
20260507195425 70 338 7.0 11.3 0.00 1.21 0.31 58 1013.3
20260507195311 70 321 5.2 11.3 0.00 1.21 0.31 58 1013.3
20260507195219 70 292 3.5 9.6 0.00 1.21 0.31 58 1013.4
20260507195129 70 322 5.2 11.3 0.00 1.21 0.31 58 1013.4
20260507195100 70 344 6.1 11.3 0.00 1.21 0.31 58 1013.4
20260507194814 70 330 7.0 11.3 0.00 1.21 0.31 56 1013.4
20260507194722 70 340 7.0 11.3 0.00 1.21 0.31 54 1013.4
20260507194633 71 336 7.0 11.3 0.00 1.21 0.31 55 1013.4
20260507194519 71 302 7.0 11.3 0.00 1.21 0.31 57 1013.3
20260507194427 71 315 7.8 11.3 0.00 1.21 0.31 58 1013.3
20260507194333 71 337 7.0 11.3 0.00 1.30 0.31 57 1013.4
20260507194220 71 348 7.8 10.4 0.00 1.30 0.31 56 1013.4
20260507194128 71 351 7.0 10.4 0.00 1.30 0.31 56 1013.4
20260507194020 71 355 4.3 10.4 0.00 1.30 0.31 58 1013.4
20260507193928 71 333 4.3 12.2 0.00 1.30 0.31 58 1013.4
20260507193815 71 332 5.2 12.2 0.00 1.30 0.31 56 1013.4
20260507193724 71 320 5.2 12.2 0.00 1.30 0.31 58 1013.4
20260507193651 71 355 6.1 12.2 0.00 1.30 0.31 58 1013.5
20260507193624 71 345 7.0 12.2 0.00 1.30 0.31 55 1013.5
20260507193337 71 315 7.8 12.2 0.00 1.30 0.31 57 1013.4
20260507193224 71 317 7.0 12.2 0.00 1.30 0.31 59 1013.4
20260507193111 71 355 6.1 12.2 0.00 1.30 0.31 57 1013.4
20260507193019 71 348 7.8 12.2 0.00 1.30 0.31 57 1013.4
20260507192926 71 334 9.6 12.2 0.00 1.30 0.31 57 1013.4
20260507192818 71 335 7.8 12.2 0.00 1.30 0.31 55 1013.4
20260507192727 71 309 7.8 12.2 0.00 1.30 0.31 55 1013.4
20260507192615 71 311 7.8 12.2 0.00 1.30 0.31 55 1013.3
20260507192523 71 328 7.8 12.2 0.00 1.30 0.31 55 1013.3
20260507192450 71 330 6.1 10.4 0.00 1.30 0.31 56 1013.3
20260507192337 71 329 5.2 10.4 0.00 1.30 0.31 56 1013.2
20260507192226 71 325 4.3 10.4 0.00 1.30 0.31 56 1013.2
20260507192155 71 348 4.3 10.4 0.00 1.30 0.31 56 1013.3
20260507192125 71 355 5.2 10.4 0.00 1.30 0.31 57 1013.2
20260507191818 71 360 6.1 10.4 0.00 1.30 0.31 57 1013.4
20260507191725 71 321 6.1 10.4 0.00 1.30 0.31 57 1013.4
20260507191617 71 341 6.1 10.4 0.00 1.30 0.31 59 1013.2
20260507191525 71 332 7.0 10.4 0.00 1.30 0.31 57 1013.2
20260507191412 71 355 7.0 10.4 0.00 1.30 0.31 55 1013.3
20260507191340 71 321 7.8 10.4 0.00 1.30 0.31 56 1013.3
20260507191246 71 313 7.0 10.4 0.00 1.30 0.31 56 1013.3
20260507191111 71 334 6.1 10.4 0.00 1.30 0.31 57 1013.3
20260507191039 71 265 4.3 10.4 0.00 1.30 0.31 57 1013.3
20260507190928 71 319 4.3 10.4 0.00 1.30 0.31 57 1013.3
20260507190816 70 306 5.2 7.8 0.00 1.30 0.31 58 1013.3
20260507190744 70 16 5.2 7.8 0.00 1.30 0.31 59 1013.3
20260507190611 70 355 4.3 8.7 0.00 1.30 0.31 60 1013.2
20260507190546 70 23 4.3 8.7 0.00 1.30 0.31 60 1013.2
20260507190319 70 290 3.5 9.6 0.00 1.30 0.31 57 1013.3
20260507190227 70 351 2.6 9.6 0.00 1.30 0.31 58 1013.3
20260507190113 70 57 1.7 9.6 0.00 1.30 0.31 58 1013.4
20260507190021 70 346 2.6 9.6 0.00 1.30 0.31 58 1013.4
20260507185930 70 24 3.5 9.6 0.00 1.30 0.31 59 1013.3
20260507185823 70 339 5.2 9.6 0.00 1.30 0.31 59 1013.3
20260507185729 70 306 7.0 9.6 0.00 1.30 0.31 59 1013.3
20260507185618 70 355 6.1 9.6 0.00 1.30 0.31 59 1013.3
20260507185525 70 330 6.1 8.7 0.00 1.30 0.31 57 1013.3
20260507185411 70 360 5.2 8.7 0.00 1.30 0.31 57 1013.3
20260507185322 70 36 4.3 10.4 0.00 1.30 0.31 59 1013.3
20260507185229 70 46 2.6 10.4 0.00 1.30 0.31 59 1013.3
20260507185118 70 344 2.6 10.4 0.00 1.30 0.31 59 1013.4
20260507185047 70 342 2.6 10.4 0.00 1.30 0.31 58 1013.4
20260507184822 70 304 4.3 10.4 0.00 1.30 0.31 58 1013.4
20260507184713 70 321 5.2 10.4 0.00 1.30 0.31 58 1013.5
20260507184640 70 298 5.2 10.4 0.00 1.30 0.31 58 1013.4
20260507184547 70 327 6.1 12.2 0.00 1.30 0.31 57 1013.4
20260507184413 70 192 6.1 13.0 0.00 1.50 0.31 58 1013.4
20260507184341 70 322 6.1 14.8 0.00 1.50 0.31 57 1013.4
20260507184227 70 300 4.3 14.8 0.00 1.50 0.31 57 1013.4
20260507184119 70 273 4.3 14.8 0.00 1.50 0.31 57 1013.4
20260507184027 70 295 6.1 14.8 0.00 1.50 0.31 59 1013.4
20260507183913 70 339 7.8 14.8 0.00 1.50 0.31 59 1013.4
20260507183821 70 17 7.8 14.8 0.00 1.50 0.31 59 1013.4
20260507183730 70 338 8.7 14.8 0.00 1.50 0.31 59 1013.4
20260507183617 70 319 7.8 14.8 0.00 1.50 0.31 59 1013.3
20260507183551 70 329 7.0 14.8 0.00 1.50 0.31 59 1013.3
20260507183324 69 330 4.3 10.4 0.00 1.50 0.31 58 1013.3
20260507183210 69 57 5.2 10.4 0.00 1.50 0.31 59 1013.4
20260507183118 69 324 6.1 10.4 0.00 1.50 0.31 60 1013.3
20260507183030 69 325 5.2 10.4 0.00 1.50 0.31 60 1013.3
20260507182918 69 336 6.1 12.2 0.00 1.50 0.31 60 1013.2
20260507182825 69 325 5.2 12.2 0.00 1.50 0.31 61 1013.2
20260507182711 69 5 7.0 12.2 0.00 1.50 0.31 61 1013.4
20260507182639 69 344 6.1 12.2 0.00 1.50 0.31 61 1013.4
20260507182525 69 336 4.3 12.2 0.00 1.50 0.31 60 1013.4
20260507182417 69 308 4.3 12.2 0.00 1.50 0.31 61 1013.4
20260507182325 69 15 5.2 12.2 0.00 1.50 0.31 60 1013.4
20260507182212 69 17 6.1 12.2 0.00 1.50 0.31 60 1013.5
20260507182121 69 355 7.0 12.2 0.00 1.50 0.31 62 1013.5
20260507182055 69 20 7.8 12.2 0.00 1.50 0.31 61 1013.6
20260507181829 69 5 7.0 12.2 0.00 1.50 0.31 63 1013.7
20260507181716 68 20 7.0 12.2 0.00 1.50 0.31 62 1013.6
20260507181625 68 23 7.8 12.2 0.00 1.50 0.31 62 1013.6
20260507181512 68 346 7.0 12.2 0.00 1.50 0.31 61 1013.6
20260507181418 68 26 7.0 12.2 0.00 1.50 0.31 61 1013.6
20260507181311 68 296 5.2 12.2 0.00 1.50 0.31 62 1013.6
20260507181219 68 315 5.2 12.2 0.00 1.50 0.31 61 1013.6
20260507181127 68 316 6.1 12.2 0.00 1.50 0.31 59 1013.6
20260507181033 68 317 7.8 12.2 0.00 1.50 0.31 61 1013.8
20260507180919 68 319 7.0 12.2 0.00 1.50 0.31 60 1013.8
20260507180845 68 313 6.1 12.2 0.00 1.50 0.31 60 1013.8
20260507180714 68 311 7.0 12.2 0.00 1.50 0.31 61 1013.9
20260507180621 68 299 7.8 12.2 0.00 1.50 0.31 62 1013.9
20260507180552 68 304 7.0 12.2 0.00 1.50 0.31 62 1013.9
20260507180326 68 350 5.2 11.3 0.00 1.50 0.31 62 1014.0
20260507180218 68 344 4.3 10.4 0.00 1.50 0.31 63 1014.0
20260507180124 68 355 5.2 10.4 0.00 1.50 0.31 63 1014.0
20260507180011 68 355 6.1 10.4 0.00 1.50 0.31 61 1014.1
20260507175919 68 345 7.0 10.4 0.00 1.50 0.31 62 1014.1
20260507175827 68 314 6.1 10.4 0.00 1.50 0.31 62 1014.1
20260507175714 67 328 7.0 10.4 0.00 1.50 0.31 63 1014.1
20260507175625 67 11 6.1 11.3 0.00 1.50 0.31 63 1014.1
20260507175512 67 5 4.3 11.3 0.00 1.50 0.31 62 1014.1
20260507175439 67 39 4.3 11.3 0.00 1.50 0.31 63 1014.1
20260507175326 67 25 6.1 11.3 0.00 1.50 0.31 61 1014.1
20260507175232 67 355 5.2 11.3 0.00 1.50 0.31 62 1014.2
20260507175118 67 34 6.1 11.3 0.00 1.50 0.31 63 1014.2
20260507175053 67 16 6.1 11.3 0.00 1.50 0.31 61 1014.2
20260507174827 67 5 7.0 11.3 0.00 1.50 0.31 60 1014.2
20260507174715 67 321 6.1 13.0 0.00 1.50 0.31 60 1014.2
20260507174622 67 319 5.2 13.0 0.00 1.50 0.31 60 1014.2
20260507174514 67 340 6.1 13.0 0.00 1.50 0.31 62 1014.2
20260507174441 67 344 7.0 13.0 0.00 1.50 0.31 62 1014.3
20260507174328 67 331 5.2 13.0 0.00 1.99 0.31 62 1014.3
20260507174216 67 348 5.2 13.0 0.00 1.99 0.31 60 1014.3
20260507174124 67 317 6.1 13.0 0.00 1.99 0.31 61 1014.3
20260507174030 68 323 7.0 13.0 0.00 1.99 0.31 61 1014.4
20260507173922 68 329 7.8 13.0 0.00 1.99 0.31 62 1014.4
20260507173830 67 360 6.1 13.0 0.00 1.99 0.31 62 1014.4
20260507173718 67 355 5.2 10.4 0.00 1.99 0.31 62 1014.4
20260507173625 67 360 6.1 10.4 0.00 1.99 0.31 63 1014.4
20260507173555 67 355 6.1 10.4 0.00 1.99 0.31 63 1014.4
20260507173312 67 360 6.1 10.4 0.00 1.99 0.31 61 1014.4
20260507173219 67 312 6.1 10.4 0.00 1.99 0.31 62 1014.4
20260507173127 67 306 5.2 10.4 0.00 1.99 0.31 63 1014.4
20260507173015 67 360 4.3 10.4 0.00 1.99 0.31 61 1014.4
20260507172923 67 9 4.3 10.4 0.00 1.99 0.31 61 1014.4
20260507172814 67 329 4.3 10.4 0.00 1.99 0.31 60 1014.4
20260507172742 67 360 4.3 10.4 0.00 1.99 0.31 59 1014.4
20260507172629 67 305 4.3 10.4 0.00 1.99 0.31 59 1014.5
20260507172515 67 325 5.2 10.4 0.00 1.99 0.31 63 1014.6
20260507172443 67 340 6.1 10.4 0.00 1.99 0.31 63 1014.6
20260507172350 67 23 6.1 10.4 0.00 1.99 0.31 63 1014.6
20260507172216 67 355 5.2 9.6 0.00 1.99 0.31 62 1014.5
20260507172127 67 336 5.2 9.6 0.00 1.99 0.31 62 1014.5
20260507172057 67 337 6.1 9.6 0.00 1.99 0.31 62 1014.6
20260507171830 67 15 6.1 8.7 0.00 1.99 0.31 63 1014.4
20260507171717 67 342 7.0 8.7 0.00 1.99 0.31 64 1014.5
20260507171628 67 351 5.2 9.6 0.00 1.99 0.31 64 1014.5
20260507171515 67 19 5.2 9.6 0.00 1.99 0.31 63 1014.5
20260507171443 67 17 5.2 9.6 0.00 1.99 0.31 63 1014.5
20260507171329 67 349 5.2 9.6 0.00 1.99 0.31 63 1014.5
20260507171217 67 5 4.3 9.6 0.00 1.99 0.31 62 1014.5
20260507171125 66 21 4.3 9.6 0.00 1.99 0.31 62 1014.5
20260507171018 66 319 5.2 9.6 0.00 1.99 0.31 64 1014.6
20260507170924 66 40 6.1 10.4 0.00 1.99 0.31 64 1014.6
20260507170811 66 324 6.1 10.4 0.00 1.99 0.31 63 1014.5
20260507170718 66 18 5.2 10.4 0.00 1.99 0.31 63 1014.5
20260507170646 66 33 5.2 12.2 0.00 1.99 0.31 64 1014.5
20260507170559 66 23 6.1 12.2 0.00 1.99 0.31 63 1014.5
20260507170313 66 332 6.1 12.2 0.00 1.99 0.31 66 1014.4
20260507170220 66 340 6.1 12.2 0.00 1.99 0.31 66 1014.4
20260507170126 65 329 6.1 12.2 0.00 1.99 0.31 66 1014.4
20260507170013 65 5 7.8 13.9 0.00 1.99 0.31 64 1014.4
20260507165919 65 24 7.8 13.9 0.00 1.99 0.31 61 1014.5
20260507165811 66 338 7.8 13.9 0.00 1.99 0.31 61 1014.5
20260507165718 66 344 7.8 13.9 0.00 1.99 0.31 62 1014.6
20260507165627 66 345 8.7 13.9 0.00 1.99 0.31 64 1014.6
20260507165515 66 325 7.8 13.9 0.00 1.99 0.31 64 1014.7
20260507165421 66 341 8.7 13.9 0.00 1.99 0.31 65 1014.7
20260507165348 66 323 8.7 13.9 0.00 1.99 0.31 64 1014.7
20260507165218 66 360 8.7 13.9 0.00 1.99 0.31 64 1014.6
20260507165125 65 336 7.8 13.0 0.00 1.99 0.31 64 1014.6
20260507165055 65 323 7.8 11.3 0.00 1.99 0.31 64 1014.6
20260507164848 65 9 7.0 11.3 0.00 1.99 0.31 64 1014.6
20260507164715 65 342 5.2 11.3 0.00 1.99 0.31 66 1014.6
20260507164626 65 336 3.5 11.3 0.00 1.99 0.31 65 1014.6
20260507164535 65 25 4.3 11.3 0.00 1.99 0.31 65 1014.6
20260507164420 65 5 7.0 12.2 0.00 1.99 0.31 63 1014.7
20260507164326 65 5 7.8 12.2 0.00 1.99 0.31 65 1014.7
20260507164234 65 355 7.0 12.2 0.00 1.99 0.31 66 1014.8
20260507164121 65 5 6.1 13.0 0.00 1.99 0.31 65 1014.8
20260507164011 65 346 6.1 13.9 0.00 1.99 0.31 64 1014.7
20260507163919 65 355 7.0 13.9 0.00 1.99 0.31 65 1014.7
20260507163846 65 325 7.8 13.9 0.00 1.99 0.31 65 1014.7
20260507163733 65 5 7.8 13.9 0.00 1.99 0.31 65 1014.7
20260507163641 65 38 7.8 13.9 0.00 1.99 0.31 65 1014.8
20260507163551 65 17 8.7 13.9 0.00 1.99 0.31 65 1014.8
20260507163350 65 331 9.6 13.9 0.00 1.99 0.31 63 1014.8
20260507163218 65 306 8.7 13.9 0.00 1.99 0.31 66 1014.8
20260507163124 65 320 7.0 11.3 0.00 1.99 0.31 67 1014.8
20260507163012 65 5 5.2 13.0 0.00 1.99 0.31 66 1014.8
20260507162940 65 22 5.2 13.0 0.00 1.99 0.31 67 1014.8
20260507162827 65 27 5.2 13.0 0.00 1.99 0.31 66 1014.8
20260507162719 65 31 6.1 13.0 0.00 1.99 0.31 67 1014.9
20260507162627 65 12 6.1 13.0 0.00 1.99 0.31 67 1014.9
20260507162515 64 355 8.7 13.0 0.00 1.99 0.31 67 1014.8
20260507162422 64 329 7.8 13.0 0.00 1.99 0.31 66 1014.8
20260507162329 64 360 7.8 13.0 0.00 1.99 0.31 65 1014.8
20260507162220 64 351 7.8 13.0 0.00 1.99 0.31 65 1014.8
20260507162147 64 351 7.8 13.0 0.00 1.99 0.31 65 1014.8
20260507162118 64 351 7.8 13.0 0.00 1.99 0.31 65 1014.7
20260507161810 64 344 7.8 13.0 0.00 1.99 0.31 66 1014.5
20260507161738 64 14 7.8 13.0 0.00 1.99 0.31 66 1014.5
20260507161625 64 22 8.7 13.0 0.00 1.99 0.31 65 1014.5
20260507161536 64 70 7.8 13.0 0.00 1.99 0.31 67 1014.5
20260507161422 64 5 7.8 13.0 0.00 1.99 0.31 67 1014.5
20260507161330 64 33 8.7 13.0 0.00 1.99 0.31 67 1014.6
20260507161218 64 32 8.7 13.0 0.00 1.99 0.31 68 1014.6
20260507161126 64 360 7.0 13.0 0.00 1.99 0.31 68 1014.6
20260507161018 64 335 3.5 9.6 0.00 1.99 0.31 69 1014.5
20260507160927 64 13 4.3 9.6 0.00 1.99 0.31 69 1014.5
20260507160815 64 5 5.2 12.2 0.00 1.99 0.31 68 1014.5
20260507160723 64 24 6.1 12.2 0.00 1.99 0.31 68 1014.5
20260507160630 64 30 7.0 12.2 0.00 1.99 0.31 69 1014.5
20260507160545 64 27 6.1 12.2 0.00 1.99 0.31 68 1014.6
20260507160319 63 34 7.0 12.2 0.00 1.99 0.31 69 1014.5
20260507160226 63 360 7.8 12.2 0.00 1.99 0.31 69 1014.5
20260507160113 63 21 7.0 13.0 0.00 1.99 0.31 70 1014.7
20260507160021 63 336 7.0 13.0 0.00 1.99 0.31 70 1014.7
20260507155927 63 11 7.8 13.0 0.00 1.99 0.31 69 1014.7
20260507155818 63 355 8.7 13.0 0.00 1.99 0.31 70 1014.6
20260507155726 63 5 7.0 13.9 0.00 1.99 0.31 71 1014.6
20260507155613 63 325 6.1 13.9 0.00 1.99 0.31 70 1014.6
20260507155521 63 16 7.0 13.9 0.00 1.99 0.31 70 1014.6
20260507155449 63 11 7.8 13.9 0.00 1.99 0.31 70 1014.5
20260507155319 62 32 7.8 13.9 0.00 1.99 0.31 70 1014.5
20260507155227 62 40 7.8 13.9 0.00 1.99 0.31 70 1014.5
20260507155154 62 19 7.8 13.9 0.00 1.99 0.31 70 1014.4
20260507155125 62 69 8.7 13.9 0.00 1.99 0.31 71 1014.5
20260507154818 62 20 8.7 13.0 0.00 1.99 0.31 71 1014.4
20260507154745 62 5 8.7 13.0 0.00 1.99 0.31 72 1014.4
20260507154616 62 31 8.7 13.9 0.00 1.99 0.31 73 1014.4
20260507154544 62 5 7.8 13.9 0.00 1.99 0.31 74 1014.4
20260507154430 62 18 7.8 13.9 0.00 1.99 0.31 72 1014.5
20260507154318 61 11 8.7 13.9 0.00 1.99 0.31 71 1014.4
20260507154225 61 360 8.7 13.9 0.00 1.99 0.31 71 1014.4
20260507154117 61 360 9.6 13.9 0.00 1.99 0.31 72 1014.5
20260507154025 61 344 10.4 13.9 0.00 1.99 0.31 71 1014.5
20260507153912 61 26 9.6 13.9 0.00 1.99 0.31 72 1014.5
20260507153821 61 349 7.8 13.9 0.00 1.99 0.31 73 1014.5
20260507153729 61 349 7.8 13.9 0.00 1.99 0.31 74 1014.5
20260507153615 61 351 7.0 12.2 0.00 1.99 0.31 74 1014.4
20260507153550 61 5 7.0 13.0 0.00 1.99 0.31 74 1014.4
20260507153323 61 333 7.8 13.0 0.00 1.99 0.31 75 1014.5
20260507153230 61 360 7.8 13.0 0.00 1.99 0.31 75 1014.4
20260507153118 61 355 7.0 13.0 0.00 1.99 0.31 74 1014.5
20260507153029 61 5 7.0 13.0 0.00 1.99 0.31 74 1014.5
20260507152918 61 5 7.0 13.0 0.00 1.99 0.31 74 1014.5
20260507152826 61 355 7.0 13.0 0.00 1.99 0.31 74 1014.5
20260507152713 61 17 7.8 13.0 0.00 1.99 0.31 74 1014.4
20260507152621 61 360 7.0 13.0 0.00 1.99 0.31 74 1014.4
20260507152513 61 20 7.0 11.3 0.00 1.99 0.31 74 1014.5
20260507152420 61 13 7.8 11.3 0.00 1.99 0.31 75 1014.5
20260507152349 61 360 7.0 10.4 0.00 1.99 0.31 75 1014.5
20260507152216 60 25 6.1 10.4 0.00 1.99 0.31 75 1014.5
20260507152122 60 18 7.0 10.4 0.00 1.99 0.31 77 1014.5
20260507152058 60 30 7.0 9.6 0.00 1.99 0.31 77 1014.5
20260507151811 60 38 6.1 11.3 0.00 1.99 0.31 77 1014.5
20260507151718 60 5 5.2 11.3 0.00 1.99 0.31 78 1014.4
20260507151625 60 347 5.2 11.3 0.00 1.99 0.31 77 1014.4
20260507151513 60 35 4.3 11.3 0.00 1.99 0.31 78 1014.5
20260507151419 60 355 5.2 11.3 0.00 1.99 0.31 77 1014.5
20260507151329 59 331 5.2 11.3 0.00 1.99 0.31 76 1014.5
20260507151217 59 23 6.1 11.3 0.00 1.99 0.31 77 1014.5
20260507151145 59 355 7.0 11.3 0.00 1.99 0.31 77 1014.5
20260507151031 59 5 8.7 11.3 0.00 1.99 0.31 77 1014.4
20260507150919 59 344 7.8 11.3 0.00 1.99 0.31 77 1014.4
20260507150827 59 5 7.0 10.4 0.00 1.99 0.31 78 1014.4
20260507150719 59 355 6.1 10.4 0.00 1.99 0.31 78 1014.4
20260507150646 59 17 5.2 10.4 0.00 1.99 0.31 78 1014.4
20260507150617 59 346 6.1 10.4 0.00 1.99 0.31 78 1014.4
20260507150310 59 339 6.1 10.4 0.00 1.99 0.31 78 1014.2
20260507150218 59 323 6.1 10.4 0.00 1.99 0.31 79 1014.3
20260507150130 59 350 7.0 11.3 0.00 1.99 0.31 79 1014.3
20260507150017 59 336 5.2 11.3 0.00 1.99 0.31 81 1014.3
20260507145924 59 13 5.2 11.3 0.00 1.99 0.31 81 1014.3
20260507145812 59 342 5.2 11.3 0.00 1.99 0.31 81 1014.3
20260507145721 59 360 4.3 11.3 0.00 1.99 0.31 82 1014.3
20260507145614 58 355 4.3 11.3 0.00 1.99 0.31 82 1014.3
20260507145521 58 22 6.1 11.3 0.00 1.99 0.31 81 1014.3
20260507145428 58 13 7.0 11.3 0.00 1.99 0.31 81 1014.3
20260507145317 58 355 7.0 11.3 0.00 1.99 0.31 82 1014.2
20260507145225 58 360 6.1 11.3 0.00 1.99 0.31 82 1014.2
20260507145116 58 32 5.2 10.4 0.00 1.99 0.31 82 1014.3
20260507145048 58 360 6.1 10.4 0.00 1.99 0.31 82 1014.3
20260507144823 58 355 7.0 10.4 0.00 1.99 0.31 82 1014.3
20260507144730 58 5 7.0 12.2 0.00 1.99 0.31 83 1014.3
20260507144617 58 338 7.0 12.2 0.00 1.99 0.31 84 1014.4
20260507144549 58 355 7.0 12.2 0.00 1.99 0.31 83 1014.4
20260507144413 58 11 7.0 12.2 0.00 1.99 0.31 83 1014.4
20260507144321 57 323 6.1 12.2 0.00 1.99 0.31 83 1014.4
20260507144228 57 9 7.8 12.2 0.00 1.99 0.31 83 1014.5
20260507144135 57 334 7.8 12.2 0.00 1.99 0.31 83 1014.4
20260507144021 57 5 7.8 12.2 0.00 1.99 0.31 83 1014.4
20260507143912 57 355 7.8 12.2 0.00 1.99 0.31 84 1014.5
20260507143840 57 323 6.1 11.3 0.00 1.99 0.31 84 1014.5
20260507143728 57 5 5.2 9.6 0.00 1.99 0.31 85 1014.5
20260507143614 57 355 5.2 12.2 0.00 1.99 0.31 85 1014.4
20260507143545 57 340 5.2 12.2 0.00 1.99 0.31 85 1014.4
20260507143323 57 355 6.1 12.2 0.00 1.99 0.31 85 1014.4
20260507143230 57 340 6.1 12.2 0.00 1.99 0.31 85 1014.3
20260507143115 57 317 5.2 12.2 0.00 1.99 0.31 85 1014.3
20260507143023 57 339 5.2 12.2 0.00 1.99 0.31 85 1014.3
20260507142930 57 360 6.1 13.0 0.00 1.99 0.31 85 1014.4
20260507142819 57 360 5.2 13.0 0.00 1.99 0.31 85 1014.4
20260507142711 57 345 4.3 13.0 0.00 1.99 0.31 85 1014.3
20260507142619 57 355 5.2 13.0 0.00 1.99 0.31 85 1014.2
20260507142546 56 12 6.1 13.0 0.00 1.99 0.31 85 1014.2
20260507142413 56 348 7.8 13.0 0.00 1.99 0.31 85 1014.3
20260507142321 56 308 7.8 13.0 0.00 1.99 0.31 85 1014.3
20260507142213 56 348 8.7 13.0 0.00 1.99 0.31 85 1014.3
20260507142141 56 5 8.7 13.0 0.00 1.99 0.31 85 1014.2
20260507142049 56 360 8.7 13.0 0.00 1.99 0.31 85 1014.2
20260507141823 56 346 8.7 13.0 0.00 1.99 0.31 85 1014.2
20260507141730 56 360 8.7 13.0 0.00 1.99 0.31 86 1014.1
20260507141623 56 355 8.7 13.0 0.00 1.99 0.31 86 1014.2
20260507141529 56 53 7.8 11.3 0.00 1.99 0.31 86 1014.1
20260507141417 56 5 6.1 11.3 0.00 1.99 0.31 86 1014.1
20260507141343 56 15 6.1 11.3 0.00 1.99 0.31 86 1014.1
20260507141230 56 24 5.2 12.2 0.00 1.99 0.31 86 1014.1
20260507141138 56 16 5.2 12.2 0.00 1.99 0.31 87 1014.1
20260507141025 56 35 6.1 12.2 0.00 1.99 0.31 86 1014.1
20260507140916 56 360 7.0 12.2 0.00 1.99 0.31 86 1014.1
20260507140823 56 319 7.0 12.2 0.00 1.99 0.31 86 1014.1
20260507140751 56 338 7.0 12.2 0.00 1.99 0.31 86 1014.0
20260507140638 56 325 7.0 12.2 0.00 1.99 0.31 87 1014.0
20260507140609 56 16 9.6 12.2 0.00 1.99 0.31 86 1014.0
20260507140325 56 334 8.7 12.2 0.00 1.99 0.31 87 1014.0
20260507140214 56 342 7.0 12.2 0.00 1.99 0.31 87 1013.9
20260507140121 56 338 7.0 12.2 0.00 1.99 0.31 87 1013.9
20260507140029 56 330 7.0 12.2 0.00 1.99 0.31 87 1013.9
20260507135918 56 329 7.0 12.2 0.00 1.99 0.31 87 1013.9
20260507135830 56 341 7.0 12.2 0.00 1.99 0.31 87 1013.9
20260507135737 56 332 7.8 12.2 0.00 1.99 0.31 87 1013.8
20260507135623 56 333 8.7 12.2 0.00 1.99 0.31 87 1013.8
20260507135511 56 11 7.8 12.2 0.00 1.99 0.31 88 1013.8
20260507135418 56 17 7.0 10.4 0.00 1.99 0.31 88 1013.8
20260507135324 56 351 7.0 10.4 0.00 1.99 0.31 88 1013.8
20260507135216 56 346 5.2 10.4 0.00 1.99 0.31 88 1013.8
20260507135121 56 5 4.3 10.4 0.00 1.99 0.31 88 1013.8
20260507135052 56 17 5.2 10.4 0.00 1.99 0.31 88 1013.8
20260507134846 56 9 6.1 10.4 0.00 1.99 0.31 88 1013.8
20260507134712 56 337 5.2 8.7 0.00 1.99 0.31 88 1013.8
20260507134624 56 331 5.2 8.7 0.00 1.99 0.31 88 1013.8
20260507134510 56 5 5.2 8.7 0.00 1.99 0.31 89 1013.8
20260507134419 56 351 6.1 9.6 0.00 2.62 0.31 89 1013.8
20260507134328 56 355 4.3 9.6 0.00 2.62 0.31 89 1013.8
20260507134215 56 17 4.3 10.4 0.00 2.62 0.31 89 1013.8
20260507134127 55 318 5.2 10.4 0.00 2.62 0.31 89 1013.8
20260507134015 55 5 6.1 12.2 0.00 2.62 0.31 89 1013.8
20260507133920 55 346 6.1 12.2 0.00 2.62 0.31 89 1013.8
20260507133847 55 16 6.1 12.2 0.00 2.62 0.31 89 1013.7
20260507133712 55 333 6.1 12.2 0.00 2.62 0.31 89 1013.8
20260507133640 55 323 5.2 12.2 0.00 2.62 0.31 89 1013.8
20260507133614 55 336 6.1 12.2 0.00 2.62 0.31 89 1013.7
20260507133327 55 355 7.0 12.2 0.00 2.62 0.31 89 1013.7
20260507133215 55 334 6.1 12.2 0.00 2.62 0.31 89 1013.6
20260507133122 55 313 5.2 12.2 0.00 2.62 0.31 89 1013.6
20260507133049 55 347 5.2 10.4 0.00 2.62 0.31 89 1013.5
20260507132921 55 24 6.1 10.4 0.00 2.62 0.31 90 1013.5
20260507132828 55 355 7.0 10.4 0.00 2.62 0.31 90 1013.5
20260507132736 55 344 7.8 10.4 0.00 2.62 0.31 90 1013.5
20260507132622 55 306 7.0 10.4 0.00 2.62 0.31 90 1013.5
20260507132528 55 349 6.1 10.4 0.00 2.62 0.31 90 1013.4
20260507132415 55 355 7.0 10.4 0.00 2.62 0.31 90 1013.4
20260507132343 55 347 7.8 10.4 0.00 2.62 0.31 90 1013.4
20260507132212 55 5 7.0 10.4 0.00 2.62 0.31 91 1013.4
20260507132140 55 12 7.0 10.4 0.00 2.62 0.31 91 1013.4
20260507132111 55 355 6.1 10.4 0.00 2.62 0.31 91 1013.3
20260507131845 55 343 5.2 9.6 0.00 2.62 0.31 91 1013.3
20260507131731 55 348 5.2 9.6 0.00 2.62 0.31 91 1013.3
20260507131623 55 360 6.1 9.6 0.00 2.62 0.31 91 1013.3
20260507131550 55 325 7.0 9.6 0.00 2.62 0.31 91 1013.3
20260507131437 55 324 7.0 9.6 0.00 2.62 0.31 92 1013.3
20260507131323 55 348 6.1 9.6 0.00 2.62 0.31 92 1013.3
20260507131228 55 342 6.1 9.6 0.00 2.62 0.31 92 1013.3
20260507131116 55 355 6.1 9.6 0.00 2.62 0.31 92 1013.3
20260507131024 55 342 7.0 9.6 0.00 2.62 0.31 92 1013.3
20260507130935 55 349 7.0 9.6 0.00 2.62 0.31 92 1013.3
20260507130822 55 340 6.1 9.6 0.00 2.62 0.31 92 1013.3
20260507130750 55 360 5.2 8.7 0.00 2.62 0.31 92 1013.3
20260507130637 55 355 4.3 7.8 0.00 2.62 0.31 93 1013.3
20260507130607 55 355 4.3 7.8 0.00 2.62 0.31 93 1013.3
20260507130324 55 335 4.3 7.8 0.00 2.62 0.31 93 1013.3
20260507130232 55 19 5.2 7.8 0.00 2.62 0.31 93 1013.3
20260507130118 55 5 5.2 8.7 0.00 2.62 0.31 93 1013.2
20260507130025 55 5 5.2 8.7 0.00 2.62 0.31 93 1013.2
20260507125913 55 9 5.2 8.7 0.00 2.62 0.31 93 1013.1
20260507125821 55 26 5.2 8.7 0.00 2.62 0.31 93 1013.1
20260507125712 54 360 5.2 8.7 0.00 2.62 0.31 93 1013.3
20260507125620 54 23 4.3 8.7 0.00 2.62 0.31 93 1013.3
20260507125528 54 355 3.5 8.7 0.00 2.62 0.31 93 1013.3
20260507125415 54 346 5.2 8.7 0.00 2.62 0.31 93 1013.3
20260507125322 54 332 5.2 8.7 0.00 2.62 0.31 94 1013.3
20260507125213 54 325 5.2 7.8 0.00 2.62 0.31 93 1013.3
20260507125140 54 355 5.2 7.8 0.00 2.62 0.31 93 1013.3
20260507125110 54 355 5.2 7.8 0.00 2.62 0.31 93 1013.2
20260507124824 54 14 4.3 7.8 0.00 2.62 0.31 94 1013.3
20260507124751 54 35 4.3 7.8 0.00 2.62 0.31 94 1013.3
20260507124617 54 355 5.2 8.7 0.00 2.62 0.31 94 1013.2
20260507124548 54 9 5.2 8.7 0.00 2.62 0.31 94 1013.2
20260507124416 54 5 5.2 8.7 0.00 2.62 0.31 94 1013.2
20260507124323 54 355 4.3 8.7 0.00 2.62 0.31 94 1013.2
20260507124230 54 5 4.3 8.7 0.00 2.62 0.31 94 1013.3
20260507124137 54 5 4.3 8.7 0.00 2.62 0.31 94 1013.3
20260507124023 54 5 5.2 8.7 0.00 2.62 0.31 94 1013.3
20260507123914 54 344 5.2 8.7 0.00 2.62 0.31 95 1013.2
20260507123842 54 332 5.2 8.7 0.00 2.62 0.31 95 1013.2
20260507123729 54 35 4.3 8.7 0.00 2.62 0.31 95 1013.2
20260507123618 54 347 5.2 9.6 0.00 2.62 0.31 95 1013.2
20260507123547 54 348 5.2 9.6 0.00 2.62 0.31 95 1013.2
20260507123325 54 5 6.1 9.6 0.00 2.62 0.31 95 1013.1
20260507123211 54 355 5.2 9.6 0.00 2.62 0.31 95 1013.1
20260507123119 54 348 5.2 11.3 0.00 2.62 0.31 95 1013.1
20260507123026 54 340 4.3 11.3 0.00 2.62 0.31 95 1013.1
20260507122933 54 347 6.1 11.3 0.00 2.62 0.31 95 1013.0
20260507122819 54 360 6.1 11.3 0.00 2.62 0.31 95 1013.0
20260507122711 54 18 6.1 11.3 0.00 2.62 0.31 95 1013.0
20260507122618 54 355 6.1 11.3 0.00 2.62 0.31 95 1013.0
20260507122526 54 26 5.2 11.3 0.00 2.62 0.31 95 1013.0
20260507122412 54 348 7.0 11.3 0.00 2.62 0.31 95 1013.0
20260507122340 54 14 7.0 11.3 0.00 2.62 0.31 95 1013.0
20260507122210 54 355 6.1 11.3 0.00 2.62 0.31 95 1012.9
20260507122118 54 355 4.3 9.6 0.00 2.62 0.31 95 1012.9
20260507122050 54 360 4.3 8.7 0.00 2.62 0.31 95 1012.9
20260507121824 54 355 5.2 8.7 0.00 2.62 0.31 95 1013.0
20260507121711 54 349 5.2 8.7 0.00 2.62 0.31 95 1013.0
20260507121643 54 9 5.2 8.7 0.00 2.62 0.31 95 1013.0
20260507121549 54 345 5.2 9.6 0.00 2.62 0.31 95 1013.0
20260507121435 54 349 5.2 9.6 0.00 2.62 0.31 96 1013.1
20260507121342 54 69 5.2 9.6 0.00 2.62 0.31 96 1013.1
20260507121229 54 341 4.3 9.6 0.00 2.62 0.31 96 1013.1
20260507121116 54 344 3.5 9.6 0.00 2.62 0.31 96 1013.0
20260507121024 54 355 4.3 9.6 0.00 2.62 0.31 96 1013.0
20260507120915 54 14 4.3 9.6 0.00 2.62 0.31 96 1013.1
20260507120823 54 329 5.2 9.6 0.00 2.62 0.31 96 1013.1
20260507120711 54 327 4.3 9.6 0.00 2.62 0.31 96 1013.0
20260507120618 54 15 4.3 8.7 0.00 2.62 0.31 96 1013.0
20260507120552 54 355 4.3 9.6 0.00 2.62 0.31 96 1013.0
20260507120327 54 5 5.2 9.6 0.00 2.62 0.31 96 1012.8
20260507120215 54 34 3.5 9.6 0.00 2.62 0.31 96 1012.7
20260507120122 54 355 3.5 9.6 0.00 2.62 0.31 96 1012.7
20260507120030 54 5 4.3 9.6 0.00 2.62 0.31 96 1012.6
20260507115918 54 360 6.1 9.6 0.00 2.62 0.31 96 1012.6
20260507115830 54 355 7.0 9.6 0.00 2.62 0.31 96 1012.6
20260507115717 54 21 6.1 9.6 0.00 2.62 0.31 96 1012.7
20260507115624 54 345 5.2 9.6 0.00 2.62 0.31 96 1012.7
20260507115511 54 355 4.3 9.6 0.00 2.62 0.31 96 1012.6
20260507115420 54 344 4.3 9.6 0.00 2.62 0.31 96 1012.6
20260507115311 54 360 5.2 9.6 0.00 2.62 0.31 96 1012.5
20260507115219 54 350 6.1 9.6 0.00 2.62 0.31 96 1012.6
20260507115126 54 344 6.1 9.6 0.00 2.62 0.31 96 1012.6
20260507115054 54 321 5.2 9.6 0.00 2.62 0.31 96 1012.6
20260507114812 54 318 4.3 9.6 0.00 2.62 0.31 96 1012.5
20260507114720 54 355 5.2 9.6 0.00 2.62 0.31 96 1012.5
20260507114627 54 338 6.1 9.6 0.00 2.62 0.31 96 1012.5
20260507114535 54 344 5.2 9.6 0.00 2.62 0.31 96 1012.6
20260507114421 54 355 3.5 9.6 0.00 2.62 0.31 96 1012.6
20260507114327 54 18 3.5 9.6 0.00 2.62 0.31 96 1012.5
20260507114219 54 341 5.2 9.6 0.00 2.62 0.31 96 1012.3
20260507114125 54 334 6.1 9.6 0.00 2.62 0.31 96 1012.3
20260507114012 54 336 7.0 9.6 0.00 2.62 0.31 96 1012.3
20260507113920 54 337 5.2 7.8 0.00 2.62 0.31 96 1012.3
20260507113827 54 5 5.2 7.8 0.00 2.62 0.31 96 1012.4
20260507113714 54 346 5.2 7.8 0.00 2.62 0.31 96 1012.5
20260507113626 54 343 4.3 7.8 0.00 2.62 0.31 96 1012.5
20260507113558 54 9 4.3 7.8 0.00 2.62 0.31 96 1012.4
20260507113312 54 342 4.3 7.8 0.00 2.62 0.31 96 1012.5
20260507113221 54 344 5.2 7.8 0.00 2.62 0.31 96 1012.5
20260507113132 54 16 5.2 7.8 0.00 2.62 0.31 96 1012.4
20260507113019 54 341 4.3 7.8 0.00 2.62 0.31 96 1012.4
20260507112924 54 360 4.3 7.8 0.00 2.62 0.31 96 1012.4
20260507112812 54 345 4.3 7.8 0.00 2.62 0.31 96 1012.4
20260507112740 54 338 3.5 7.8 0.00 2.62 0.31 96 1012.4
20260507112626 54 13 3.5 7.8 0.00 2.62 0.31 96 1012.4
20260507112533 53 338 3.5 7.8 0.00 2.62 0.31 96 1012.6
20260507112423 54 360 4.3 9.6 0.00 2.62 0.31 96 1012.6
20260507112311 54 348 4.3 11.3 0.00 2.62 0.31 96 1012.6
20260507112220 54 5 4.3 11.3 0.00 2.62 0.31 96 1012.6
20260507112128 54 341 4.3 11.3 0.00 2.62 0.31 96 1012.6
20260507112058 54 322 4.3 11.3 0.00 2.62 0.31 96 1012.5
20260507111817 53 360 4.3 11.3 0.00 2.62 0.31 96 1012.1
20260507111745 53 306 5.2 11.3 0.00 2.62 0.31 96 1012.1
20260507111611 54 341 7.0 11.3 0.00 2.62 0.31 96 1011.9
20260507111518 53 355 6.1 11.3 0.00 2.62 0.31 96 1012.0
20260507111446 53 360 4.3 8.7 0.00 2.62 0.31 96 1012.0
20260507111332 54 9 5.2 8.7 0.00 2.62 0.31 96 1012.1
20260507111222 54 348 6.1 8.7 0.00 2.62 0.31 96 1012.1
20260507111129 54 355 6.1 8.7 0.00 2.62 0.31 96 1012.0
20260507111016 54 12 3.5 8.7 0.00 2.62 0.31 96 1012.0
20260507110924 54 355 3.5 8.7 0.00 2.62 0.31 96 1012.0
20260507110811 54 11 5.2 8.7 0.00 2.62 0.31 96 1011.9
20260507110739 54 343 4.3 8.7 0.00 2.62 0.31 96 1011.9
20260507110629 54 360 4.3 8.7 0.00 2.62 0.31 96 1011.9
20260507110600 54 355 4.3 8.7 0.00 2.62 0.31 96 1011.9
20260507110314 54 355 4.3 8.7 0.00 2.62 0.31 96 1012.0
20260507110221 54 348 4.3 8.7 0.00 2.62 0.31 96 1012.0
20260507110112 54 360 5.2 8.7 0.00 2.62 0.31 96 1012.1
20260507110020 54 346 4.3 8.7 0.00 2.62 0.31 96 1012.1
20260507105929 54 333 4.3 8.7 0.00 2.62 0.31 96 1012.1
20260507105816 54 323 3.5 8.7 0.00 2.62 0.31 96 1012.2
20260507105724 53 336 4.3 8.7 0.00 2.62 0.31 96 1012.2
20260507105652 54 5 6.1 8.7 0.00 2.62 0.31 96 1012.2
20260507105522 54 360 6.1 8.7 0.00 2.62 0.31 96 1012.1
20260507105429 54 13 4.3 8.7 0.00 2.62 0.31 96 1012.1
20260507105337 54 323 4.3 8.7 0.00 2.62 0.31 96 1012.2
20260507105223 54 355 5.2 8.7 0.00 2.62 0.31 96 1012.2
20260507105129 54 323 4.3 8.7 0.00 2.62 0.31 96 1012.1
20260507105103 54 332 4.3 8.7 0.00 2.62 0.31 96 1012.1
20260507104838 54 348 2.6 7.8 0.00 2.62 0.31 96 1012.0
20260507104725 54 344 2.6 7.8 0.00 2.62 0.31 96 1012.0
20260507104613 54 9 2.6 7.8 0.00 2.62 0.31 96 1011.8
20260507104521 54 24 2.6 7.8 0.00 2.62 0.31 96 1011.8
20260507104429 54 15 3.5 7.8 0.00 2.62 0.31 96 1011.7
20260507104322 54 9 4.3 7.8 0.00 2.62 0.31 96 1011.7
20260507104228 54 31 4.3 7.8 0.00 2.62 0.31 96 1011.8
20260507104137 54 26 3.5 7.8 0.00 2.62 0.31 96 1011.7
20260507104023 54 18 3.5 7.8 0.00 2.62 0.31 96 1011.7
20260507103930 54 348 3.5 7.8 0.00 2.62 0.31 96 1011.7
20260507103818 54 13 4.3 7.8 0.00 2.62 0.31 96 1011.8
20260507103730 54 34 4.3 9.6 0.00 2.62 0.31 96 1011.8
20260507103638 54 31 3.5 9.6 0.00 2.62 0.31 96 1012.0
20260507103607 54 5 3.5 9.6 0.00 2.62 0.31 96 1012.0
20260507103319 54 355 2.6 9.6 0.00 2.62 0.31 96 1012.1
20260507103226 54 5 3.5 9.6 0.00 2.62 0.31 96 1012.1
20260507103118 54 360 5.2 9.6 0.00 2.62 0.31 96 1012.1
20260507103026 54 5 6.1 9.6 0.00 2.62 0.31 96 1012.1
20260507102934 54 12 6.1 9.6 0.00 2.62 0.31 96 1012.0
20260507102820 54 355 5.2 9.6 0.00 2.62 0.31 96 1012.0
20260507102728 54 5 5.2 9.6 0.00 2.62 0.31 96 1012.0
20260507102620 54 9 4.3 10.4 0.00 2.62 0.31 96 1011.9
20260507102527 54 346 4.3 10.4 0.00 2.62 0.31 96 1011.9
20260507102414 54 5 4.3 10.4 0.00 2.62 0.31 96 1011.9
20260507102322 54 26 4.3 10.4 0.00 2.62 0.31 96 1011.9
20260507102249 54 360 5.2 10.4 0.00 2.62 0.31 96 1011.9
20260507102117 54 355 7.0 10.4 0.00 2.62 0.31 96 1011.9
20260507102052 54 26 6.1 10.4 0.00 2.62 0.31 96 1011.9
20260507101826 54 16 4.3 10.4 0.00 2.62 0.31 96 1011.8
20260507101714 54 24 2.6 11.3 0.00 2.62 0.31 96 1011.7
20260507101622 54 355 3.5 11.3 0.00 2.62 0.31 96 1011.7
20260507101513 54 22 5.2 11.3 0.00 2.62 0.31 96 1011.8
20260507101421 54 35 5.2 11.3 0.00 2.62 0.31 96 1011.8
20260507101329 54 5 6.1 11.3 0.00 2.62 0.31 96 1011.8
20260507101236 54 355 5.2 11.3 0.00 2.62 0.31 96 1011.8
20260507101122 54 355 6.1 11.3 0.00 2.62 0.31 96 1011.8
20260507101050 54 349 6.1 11.3 0.00 2.62 0.31 96 1011.7
20260507100918 54 15 6.1 11.3 0.00 2.62 0.31 96 1011.6
20260507100829 54 340 5.2 11.3 0.00 2.62 0.31 96 1011.6
20260507100716 54 5 6.1 11.3 0.00 2.62 0.31 96 1011.5
20260507100643 54 25 7.0 11.3 0.00 2.62 0.31 96 1011.5
20260507100552 54 332 6.1 11.3 0.00 2.62 0.31 96 1011.5
20260507100311 54 57 6.1 11.3 0.00 2.62 0.31 96 1011.5
20260507100219 54 360 5.2 10.4 0.00 2.62 0.31 96 1011.5
20260507100148 54 15 4.3 9.6 0.00 2.62 0.31 96 1011.5
20260507100014 54 5 5.2 9.6 0.00 2.62 0.31 96 1011.2
20260507095921 54 331 5.2 9.6 0.00 2.62 0.31 96 1011.2
20260507095829 54 355 5.2 9.6 0.00 2.62 0.31 96 1011.2
20260507095720 54 5 5.2 9.6 0.00 2.62 0.31 96 1011.2
20260507095626 54 10 5.2 9.6 0.00 2.62 0.31 96 1011.3
20260507095534 54 5 5.2 9.6 0.00 2.62 0.31 96 1011.5
20260507095442 54 349 4.3 8.7 0.00 2.62 0.31 96 1011.5
20260507095328 54 20 4.3 8.7 0.00 2.62 0.31 96 1011.5
20260507095215 54 26 4.3 8.7 0.00 2.62 0.31 96 1011.6
20260507095142 54 53 4.3 8.7 0.00 2.62 0.31 96 1011.6
20260507095056 54 22 4.3 8.7 0.01 2.62 0.31 96 1011.6
20260507094830 54 34 5.2 8.7 0.01 2.62 0.31 96 1011.8
20260507094718 54 342 4.3 8.7 0.01 2.62 0.31 96 1011.7
20260507094626 54 5 4.3 8.7 0.01 2.62 0.31 96 1011.7
20260507094518 54 12 5.2 8.7 0.01 2.62 0.31 96 1011.6
20260507094426 54 355 5.2 8.7 0.01 2.62 0.31 96 1011.6
20260507094313 54 32 6.1 8.7 0.01 2.62 0.31 96 1011.6
20260507094220 54 5 5.2 8.7 0.01 2.62 0.31 96 1011.6
20260507094149 55 334 5.2 8.7 0.01 2.62 0.31 96 1011.8
20260507094016 55 340 4.3 9.6 0.01 2.62 0.31 96 1012.0
20260507093927 54 319 4.3 9.6 0.01 2.62 0.31 96 1012.0
20260507093813 54 336 5.2 9.6 0.01 2.62 0.31 96 1012.0
20260507093720 55 360 5.2 9.6 0.01 2.62 0.31 96 1012.0
20260507093627 55 360 5.2 12.2 0.01 2.62 0.31 96 1012.1
20260507093556 55 344 5.2 12.2 0.02 2.62 0.31 96 1012.1
20260507093314 55 350 5.2 12.2 0.03 2.62 0.31 96 1011.8
20260507093220 55 349 4.3 12.2 0.03 2.62 0.31 96 1011.8
20260507093129 55 345 4.3 12.2 0.03 2.62 0.31 96 1011.8
20260507093016 55 355 4.3 12.2 0.04 2.62 0.31 96 1011.4
20260507092924 55 30 5.2 12.2 0.04 2.62 0.31 96 1011.4
20260507092816 55 348 7.8 12.2 0.05 2.62 0.31 96 1011.3
20260507092743 55 360 7.8 12.2 0.05 2.62 0.31 96 1011.3
20260507092611 55 355 6.1 10.4 0.06 2.62 0.31 96 1011.1
20260507092520 55 355 5.2 9.6 0.06 2.62 0.31 96 1011.1
20260507092428 55 360 5.2 8.7 0.06 2.62 0.31 96 1011.0
20260507092335 55 14 4.3 8.7 0.07 2.62 0.31 96 1011.1
20260507092225 55 350 3.5 8.7 0.07 2.62 0.31 96 1011.1
20260507092133 55 17 3.5 7.8 0.07 2.62 0.31 96 1011.2
20260507092103 55 355 3.5 7.8 0.08 2.62 0.31 96 1011.1
20260507091836 55 22 4.3 8.7 0.09 2.62 0.31 96 1011.6
20260507091722 55 25 4.3 8.7 0.09 2.62 0.31 96 1011.6
20260507091614 55 360 4.3 8.7 0.11 2.62 0.31 96 1011.5
20260507091521 55 29 5.2 8.7 0.11 2.62 0.31 96 1011.5
20260507091429 55 5 5.2 9.6 0.11 2.62 0.31 96 1011.4
20260507091316 55 16 5.2 9.6 0.14 2.62 0.31 96 1011.4
20260507091223 55 5 5.2 9.6 0.14 2.62 0.31 96 1011.4
20260507091114 55 23 5.2 9.6 0.16 2.62 0.31 96 1011.7
20260507091021 55 9 4.3 9.6 0.16 2.62 0.31 96 1011.7
20260507090929 55 14 4.3 9.6 0.18 2.62 0.31 96 1011.9
20260507090817 55 349 4.3 9.6 0.21 2.62 0.31 96 1011.9
20260507090725 55 360 4.3 9.6 0.21 2.62 0.31 96 1011.9
20260507090612 55 24 5.2 10.4 0.22 2.62 0.31 96 1011.8
20260507090547 55 339 4.3 10.4 0.22 2.62 0.31 96 1011.8
20260507090321 55 355 3.5 10.4 0.23 2.62 0.31 96 1012.0
20260507090227 55 40 3.5 10.4 0.24 2.62 0.31 96 1012.0
20260507090115 55 14 5.2 10.4 0.25 2.62 0.31 96 1011.9
20260507090027 55 348 5.2 10.4 0.25 2.62 0.31 96 1011.9
20260507085934 55 5 5.2 10.4 0.26 2.62 0.31 96 1011.9
20260507085820 55 355 7.0 10.4 0.26 2.62 0.31 96 1011.9
20260507085747 55 321 7.0 10.4 0.26 2.62 0.31 96 1011.9
20260507085614 55 360 6.1 10.4 0.26 2.62 0.31 96 1012.0
20260507085521 55 5 5.2 9.6 0.26 2.62 0.31 96 1012.0
20260507085413 55 5 4.3 9.6 0.26 2.62 0.31 96 1012.0
20260507085320 55 355 5.2 9.6 0.26 2.62 0.31 96 1012.0
20260507085228 55 355 5.2 9.6 0.26 2.62 0.31 96 1012.1
20260507085115 55 355 6.1 9.6 0.25 2.61 0.30 96 1012.0
20260507085046 55 355 5.2 8.7 0.25 2.61 0.30 96 1012.0
20260507084823 55 322 4.3 7.8 0.25 2.61 0.30 96 1011.8
20260507084711 55 11 3.5 8.7 0.25 2.61 0.30 96 1011.7
20260507084619 55 9 3.5 8.7 0.25 2.61 0.30 96 1011.7
20260507084526 55 13 3.5 8.7 0.25 2.61 0.30 96 1011.6
20260507084415 55 355 4.3 8.7 0.25 2.61 0.30 96 1011.3
20260507084326 55 34 3.5 8.7 0.25 2.61 0.30 96 1011.3
20260507084213 55 47 3.5 8.7 0.25 2.61 0.30 96 1011.1
20260507084119 55 73 4.3 11.3 0.25 2.61 0.30 96 1011.2
20260507084027 55 22 4.3 11.3 0.25 2.61 0.30 96 1011.2
20260507083936 55 44 5.2 11.3 0.26 2.61 0.30 96 1011.2
20260507083821 55 355 6.1 12.2 0.26 2.61 0.30 96 1011.2
20260507083713 55 5 5.2 12.2 0.26 2.61 0.30 96 1011.2
20260507083620 55 27 4.3 12.2 0.25 2.60 0.29 96 1011.2
20260507083551 55 11 4.3 12.2 0.25 2.60 0.29 96 1011.1
20260507083324 55 355 6.1 12.2 0.24 2.59 0.28 96 1011.4
20260507083213 55 19 8.7 12.2 0.24 2.59 0.28 95 1010.5
20260507083125 55 42 7.8 12.2 0.23 2.58 0.27 95 1010.5
20260507083012 55 34 6.1 12.2 0.23 2.58 0.27 95 1010.7
20260507082941 55 51 4.3 9.6 0.22 2.57 0.26 96 1010.7
20260507082828 55 360 4.3 9.6 0.23 2.57 0.26 95 1011.3
20260507082714 55 355 4.3 9.6 0.24 2.57 0.26 95 1012.0
20260507082620 55 28 4.3 10.4 0.23 2.56 0.25 95 1012.0
20260507082511 55 355 5.2 11.3 0.25 2.56 0.25 95 1012.2
20260507082418 55 339 6.1 11.3 0.24 2.55 0.24 95 1012.4
20260507082326 55 17 7.0 11.3 0.24 2.55 0.24 95 1012.4
20260507082214 55 320 6.1 11.3 0.24 2.55 0.24 95 1012.5
20260507082123 55 24 6.1 11.3 0.23 2.54 0.23 95 1012.5
20260507082057 55 22 7.0 11.3 0.23 2.54 0.23 95 1012.4
20260507081811 55 345 7.8 11.3 0.22 2.53 0.22 95 1012.3
20260507081718 55 355 7.8 11.3 0.21 2.52 0.21 95 1012.3
20260507081625 55 305 7.0 11.3 0.20 2.51 0.20 95 1012.3
20260507081517 55 327 6.1 9.6 0.20 2.51 0.20 95 1012.3
20260507081444 55 337 5.2 9.6 0.19 2.50 0.19 95 1012.3
20260507081328 55 342 5.2 9.6 0.18 2.49 0.18 95 1011.9
20260507081214 55 11 5.2 9.6 0.16 2.47 0.16 95 1011.7
20260507081120 55 5 5.2 9.6 0.15 2.46 0.15 95 1011.7
20260507081028 55 324 4.3 10.4 0.14 2.45 0.14 95 1012.1
20260507080915 55 349 4.3 10.4 0.11 2.42 0.11 95 1012.4
20260507080827 55 319 4.3 10.4 0.10 2.41 0.10 95 1012.4
20260507080715 55 336 5.2 10.4 0.09 2.40 0.09 95 1012.5
20260507080621 55 348 5.2 10.4 0.09 2.40 0.09 95 1012.5
20260507080551 55 342 4.3 10.4 0.08 2.39 0.08 95 1012.5
20260507080325 55 5 5.2 10.4 0.07 2.38 0.07 95 1012.2
20260507080217 55 355 7.0 10.4 0.07 2.38 0.07 95 1011.8
20260507080125 55 5 7.8 10.4 0.06 2.37 0.06 95 1011.8
20260507080012 55 22 7.8 11.3 0.06 2.37 0.06 95 1011.2
20260507075920 55 15 7.0 11.3 0.05 2.36 0.05 95 1011.2
20260507075826 55 5 7.0 11.3 0.05 2.36 0.05 95 1011.1
20260507075737 55 5 6.1 11.3 0.05 2.36 0.05 95 1011.0
20260507075644 55 5 6.1 11.3 0.05 2.36 0.05 95 1011.0
20260507075530 55 32 6.1 11.3 0.05 2.36 0.05 95 1010.8
20260507075417 55 355 5.2 11.3 0.05 2.36 0.05 95 1010.7
20260507075345 55 28 5.2 11.3 0.05 2.36 0.05 95 1010.7
20260507075232 55 63 6.1 11.3 0.05 2.36 0.05 95 1010.7
20260507075139 55 355 7.0 11.3 0.05 2.36 0.05 95 1010.7
20260507075115 55 30 6.1 12.2 0.05 2.36 0.05 95 1010.7
20260507074827 55 45 5.2 12.2 0.05 2.36 0.05 95 1010.6
20260507074715 55 12 5.2 12.2 0.05 2.36 0.05 95 1010.8
20260507074622 55 23 5.2 12.2 0.05 2.36 0.05 95 1010.8
20260507074530 55 19 5.2 12.2 0.05 2.36 0.05 95 1010.8
20260507074420 55 5 5.2 12.2 0.05 2.36 0.05 95 1010.9
20260507074327 55 42 6.1 12.2 0.05 2.36 0.05 95 1010.9
20260507074214 55 355 7.8 12.2 0.05 2.36 0.05 95 1011.1
20260507074123 55 22 7.8 12.2 0.05 2.36 0.05 95 1011.1
20260507074010 55 42 6.1 12.2 0.05 2.36 0.05 95 1011.0
20260507073921 55 5 6.1 12.2 0.04 2.35 0.04 95 1011.0
20260507073848 55 23 7.8 12.2 0.04 2.35 0.04 95 1011.1
20260507073715 55 33 8.7 12.2 0.04 2.35 0.04 95 1011.2
20260507073643 55 26 8.7 12.2 0.04 2.35 0.04 95 1011.2
20260507073613 55 5 7.8 12.2 0.04 2.35 0.04 95 1011.2
20260507073345 55 360 7.0 12.2 0.04 2.35 0.04 95 1011.4
20260507073214 55 344 7.0 12.2 0.04 2.35 0.04 95 1011.7
20260507073120 55 24 7.0 12.2 0.04 2.35 0.04 95 1011.7
20260507073027 55 34 7.8 12.2 0.04 2.35 0.04 95 1011.6
20260507072913 55 18 8.7 12.2 0.03 2.34 0.03 95 1011.7
20260507072820 55 15 8.7 12.2 0.02 2.33 0.02 95 1011.7
20260507072728 55 14 8.7 12.2 0.02 2.33 0.02 95 1011.8
20260507072619 55 39 8.7 12.2 0.01 2.32 0.01 95 1012.0
20260507072527 55 5 7.8 12.2 0.00 2.31 0.00 95 1012.5
20260507072413 55 360 7.0 12.2 0.00 2.31 0.00 95 1013.3
20260507072320 55 345 7.8 12.2 0.00 2.31 0.00 95 1013.3
20260507072227 55 307 8.7 12.2 0.00 2.31 0.00 95 1013.4
20260507072136 55 311 7.8 12.2 0.00 2.31 0.00 95 1013.3
20260507072110 55 327 6.1 12.2 0.00 2.31 0.00 95 1013.7
20260507071844 55 16 6.1 12.2 0.00 2.31 0.00 95 1012.3
20260507071729 55 5 7.8 12.2 0.00 2.31 0.00 95 1012.1
20260507071618 55 27 7.8 13.0 0.00 2.31 0.00 95 1011.6
20260507071526 55 11 7.8 13.0 0.00 2.31 0.00 95 1011.6
20260507071417 55 360 7.8 13.0 0.00 2.31 0.00 95 1011.4
20260507071323 55 57 7.8 13.0 0.00 2.31 0.00 95 1011.4
20260507071211 55 15 7.8 13.0 0.00 2.31 0.00 95 1011.3
20260507071117 55 25 7.8 13.0 0.00 2.31 0.00 95 1011.2
20260507071024 55 35 7.0 13.0 0.00 2.31 0.00 95 1011.2
20260507070915 55 42 8.7 13.0 0.00 2.31 0.00 95 1011.2
20260507070822 55 9 8.7 13.0 0.00 2.31 0.00 95 1011.2
20260507070729 55 42 7.0 12.2 0.00 2.31 0.00 95 1011.2
20260507070637 55 45 6.1 12.2 0.00 2.31 0.00 95 1011.3
20260507070547 55 67 7.0 12.2 0.00 2.31 0.00 95 1011.3
20260507070323 55 31 7.8 12.2 0.00 2.31 0.00 95 1011.3
20260507070231 55 14 8.7 12.2 0.00 2.31 0.00 95 1011.3
20260507070116 55 29 7.0 11.3 0.00 2.31 0.00 95 1011.6
20260507070022 55 5 7.0 11.3 0.00 2.31 0.00 95 1011.6
20260507065930 55 360 7.0 11.3 0.00 2.31 0.00 95 1011.6
20260507065816 55 355 5.2 11.3 0.00 2.31 0.00 95 1011.7
20260507065743 55 355 4.3 11.3 0.00 2.31 0.00 95 1011.7
20260507065613 55 17 5.2 11.3 0.00 2.31 0.00 95 1011.7
20260507065521 55 20 6.1 13.0 0.00 2.31 0.00 95 1011.7
20260507065449 55 5 7.0 13.0 0.00 2.31 0.00 95 1011.9
20260507065317 55 39 7.8 13.0 0.00 2.31 0.00 95 1011.9
20260507065223 55 349 7.0 13.0 0.00 2.31 0.00 95 1011.9
20260507065131 55 10 7.0 13.0 0.00 2.31 0.00 95 1012.0
20260507065104 55 32 7.0 13.0 0.00 2.31 0.00 95 1012.0
20260507064817 55 17 7.8 13.0 0.00 2.31 0.00 95 1012.2
20260507064745 55 355 7.8 13.0 0.00 2.31 0.00 95 1012.2
20260507064610 55 5 7.0 12.2 0.00 2.31 0.00 95 1012.2
20260507064517 55 13 7.0 12.2 0.00 2.31 0.00 95 1012.2
20260507064429 55 355 7.0 12.2 0.00 2.31 0.00 95 1012.2
20260507064317 55 16 6.1 12.2 0.00 2.31 0.00 95 1012.1
20260507064242 55 355 7.0 10.4 0.00 2.31 0.00 95 1012.1
20260507064130 55 355 7.0 10.4 0.00 2.31 0.00 95 1012.2
20260507064016 55 45 6.1 12.2 0.00 2.31 0.00 95 1012.2
20260507063925 55 355 5.2 13.0 0.00 2.31 0.00 95 1012.2
20260507063837 55 360 5.2 13.0 0.00 2.31 0.00 95 1012.3
20260507063723 55 355 5.2 13.0 0.00 2.31 0.00 95 1012.3
20260507063651 55 350 6.1 13.0 0.00 2.31 0.00 95 1012.2
20260507063601 55 5 7.0 13.0 0.00 2.31 0.00 95 1012.2
20260507063334 55 5 7.8 13.0 0.00 2.31 0.00 95 1012.1
20260507063225 55 32 8.7 13.0 0.00 2.31 0.00 95 1012.1
20260507063112 55 24 8.7 13.0 0.00 2.31 0.00 95 1011.8
20260507063039 55 346 6.1 11.3 0.00 2.31 0.00 95 1011.7
20260507062925 55 360 6.1 11.3 0.00 2.31 0.00 95 1011.7
20260507062813 55 346 7.8 13.0 0.00 2.31 0.00 95 1011.3
20260507062721 55 34 7.0 13.0 0.00 2.31 0.00 95 1011.3
20260507062611 55 14 6.1 13.0 0.00 2.31 0.00 96 1011.2
20260507062518 55 355 6.1 13.0 0.00 2.31 0.00 96 1011.3
20260507062427 55 9 7.0 13.0 0.00 2.31 0.00 96 1011.3
20260507062315 55 15 7.0 13.0 0.00 2.31 0.00 96 1011.5
20260507062242 55 355 7.0 13.0 0.00 2.31 0.00 96 1011.5
20260507062149 55 24 7.0 13.0 0.00 2.31 0.00 96 1011.5
20260507062123 55 5 7.0 13.0 0.00 2.31 0.00 96 1011.6
20260507061835 55 16 7.0 13.0 0.00 2.31 0.00 96 1011.9
20260507061741 55 355 7.0 13.0 0.00 2.31 0.00 96 1011.9
20260507061629 55 20 7.8 13.0 0.00 2.31 0.00 96 1012.0
20260507061515 55 28 7.0 13.0 0.00 2.31 0.00 96 1012.2
20260507061423 55 5 6.1 12.2 0.00 2.31 0.00 96 1012.2
20260507061313 55 355 6.1 12.2 0.00 2.31 0.00 96 1012.2
20260507061221 55 43 7.0 12.2 0.00 2.31 0.00 96 1012.2
20260507061128 55 22 7.0 10.4 0.00 2.31 0.00 96 1012.2
20260507061015 55 42 5.2 10.4 0.00 2.31 0.00 96 1012.2
20260507060942 55 360 4.3 8.7 0.00 2.31 0.00 96 1012.2
20260507060849 55 11 4.3 8.7 0.00 2.31 0.00 96 1012.2
20260507060719 55 11 5.2 8.7 0.00 2.31 0.00 96 1012.2
20260507060626 55 348 5.2 10.4 0.00 2.31 0.00 96 1012.3
20260507060558 56 22 4.3 10.4 0.00 2.31 0.00 96 1012.4
20260507060311 56 355 5.2 10.4 0.00 2.31 0.00 96 1012.3
20260507060222 56 5 5.2 10.4 0.00 2.31 0.00 96 1012.3
20260507060126 56 5 4.3 10.4 0.00 2.31 0.00 96 1012.4
20260507060014 56 21 4.3 10.4 0.00 2.31 0.00 96 1012.5
20260507055942 56 340 6.1 10.4 0.00 2.31 0.00 96 1012.5
20260507055829 56 19 6.1 10.4 0.00 2.31 0.00 96 1012.6
20260507055715 56 9 7.0 10.4 0.00 2.31 0.00 96 1012.5
20260507055622 56 5 7.0 10.4 0.00 2.31 0.00 96 1012.5
20260507055513 56 11 5.2 10.4 0.00 2.31 0.00 96 1012.5
20260507055421 56 348 6.1 10.4 0.00 2.31 0.00 96 1012.5
20260507055329 56 22 6.1 10.4 0.00 2.31 0.00 96 1012.5
20260507055217 56 355 3.5 9.6 0.00 2.31 0.00 96 1012.6
20260507055124 56 355 3.5 8.7 0.00 2.31 0.00 96 1012.6
20260507055058 56 34 3.5 8.7 0.00 2.31 0.00 96 1012.7
20260507054832 56 17 3.5 8.7 0.00 2.31 0.00 96 1012.5
20260507054719 56 348 3.5 8.7 0.00 2.31 0.00 96 1012.5
20260507054626 56 345 4.3 8.7 0.00 2.31 0.00 96 1012.4
20260507054515 56 13 4.3 10.4 0.00 2.31 0.00 96 1012.7
20260507054426 56 9 5.2 10.4 0.00 2.31 0.00 96 1012.7
20260507054314 56 350 5.2 10.4 0.00 2.31 2.31 96 1012.7
20260507054243 56 355 4.3 10.4 0.00 2.31 2.31 96 1012.7
20260507054129 56 18 3.5 10.4 0.00 2.31 2.31 96 1012.7
20260507054017 56 345 2.6 10.4 0.00 2.31 2.31 96 1012.6
20260507053945 56 11 3.5 10.4 0.00 2.31 2.31 96 1012.6
20260507053817 56 16 5.2 10.4 0.00 2.31 2.31 96 1012.7
20260507053724 56 348 6.1 10.4 0.00 2.31 2.31 96 1012.7
20260507053632 56 30 5.2 10.4 0.00 2.31 2.31 96 1012.6
20260507053605 56 348 4.3 9.6 0.00 2.31 2.31 96 1012.5
20260507053322 56 25 5.2 9.6 0.00 2.31 2.31 96 1012.3
20260507053229 56 330 5.2 9.6 0.00 2.31 2.31 96 1012.3
20260507053136 56 9 4.3 9.6 0.00 2.31 2.31 96 1012.1
20260507053041 56 15 4.3 9.6 0.00 2.31 2.31 96 1012.1
20260507052928 56 355 4.3 9.6 0.00 2.31 2.31 96 1012.1
20260507052815 56 37 6.1 9.6 0.00 2.31 2.31 96 1012.1
20260507052723 56 34 6.1 9.6 0.00 2.31 2.31 96 1012.1
20260507052616 56 350 5.2 9.6 0.00 2.31 2.31 96 1012.3
20260507052543 56 9 6.1 9.6 0.00 2.31 2.31 96 1012.3
20260507052429 56 17 6.1 9.6 0.00 2.31 2.31 96 1012.3
20260507052337 56 360 4.3 9.6 0.00 2.31 2.31 96 1012.2
20260507052243 56 33 4.3 9.6 0.00 2.31 2.31 96 1012.2
20260507052129 56 5 4.3 8.7 0.00 2.31 2.31 96 1012.1
20260507052104 56 46 4.3 8.7 0.00 2.31 2.31 96 1012.1
20260507051817 56 19 5.2 8.7 0.00 2.31 2.31 96 1012.2
20260507051725 56 9 5.2 8.7 0.00 2.31 2.31 96 1012.2
20260507051611 56 21 4.3 8.7 0.00 2.31 2.31 96 1012.3
20260507051518 56 35 4.3 8.7 0.00 2.31 2.31 96 1012.3
20260507051429 56 15 4.3 8.7 0.00 2.31 2.31 96 1012.3
20260507051317 56 360 6.1 9.6 0.00 2.31 2.31 96 1012.4
20260507051225 56 31 4.3 9.6 0.00 2.31 2.31 96 1012.4
20260507051113 56 355 3.5 9.6 0.00 2.31 2.31 96 1012.4
20260507051040 56 15 4.3 9.6 0.00 2.31 2.31 96 1012.4
20260507050947 56 355 4.3 9.6 0.00 2.31 2.31 96 1012.4
20260507050818 56 5 5.2 9.6 0.00 2.31 2.31 96 1012.4
20260507050745 56 27 5.2 9.6 0.00 2.31 2.31 96 1012.4
20260507050631 56 360 6.1 9.6 0.00 2.31 2.31 96 1012.5
20260507050602 56 32 6.1 9.6 0.00 2.31 2.31 96 1012.5
20260507050316 56 5 6.1 8.7 0.00 2.31 2.31 96 1012.6
20260507050227 56 360 5.2 7.8 0.00 2.31 2.31 96 1012.6
20260507050114 56 345 4.3 7.0 0.00 2.31 2.31 96 1012.4
20260507050021 56 341 4.3 7.0 0.00 2.31 2.31 96 1012.6
20260507045929 56 323 5.2 7.0 0.00 2.31 2.31 96 1012.6
20260507045817 56 347 4.3 7.0 0.00 2.31 2.31 96 1012.4
20260507045729 56 21 3.5 7.8 0.00 2.31 2.31 96 1012.4
20260507045617 56 9 3.5 8.7 0.00 2.31 2.31 96 1012.3
20260507045525 56 360 3.5 8.7 0.00 2.31 2.31 96 1012.3
20260507045412 56 9 4.3 8.7 0.00 2.31 2.31 96 1012.4
20260507045320 56 5 4.3 8.7 0.00 2.31 2.31 96 1012.5
20260507045212 56 9 4.3 8.7 0.00 2.31 2.31 96 1012.6
20260507045138 56 333 4.3 8.7 0.00 2.31 2.31 96 1012.6
20260507045048 56 10 5.2 8.7 0.00 2.31 2.31 96 1012.6
20260507044822 56 327 5.2 8.7 0.00 2.31 2.31 96 1012.6
20260507044749 56 16 4.3 8.7 0.00 2.31 2.31 96 1012.7
20260507044635 56 360 5.2 8.7 0.00 2.31 2.31 96 1012.4
20260507044526 56 351 5.2 8.7 0.00 2.31 2.31 96 1012.4
20260507044413 56 47 4.3 8.7 0.00 2.31 2.31 96 1012.3
20260507044341 56 5 5.2 10.4 0.00 2.31 2.31 96 1012.3
20260507044248 56 350 5.2 10.4 0.00 2.31 2.31 96 1012.3
20260507044115 56 348 4.3 10.4 0.00 2.31 2.31 96 1012.4
20260507044022 56 349 5.2 10.4 0.00 2.31 2.31 96 1012.4
20260507043912 56 344 5.2 10.4 0.00 2.31 2.31 96 1012.5
20260507043819 56 355 4.3 10.4 0.00 2.31 2.31 96 1012.5
20260507043725 56 346 5.2 10.4 0.00 2.31 2.31 96 1012.5
20260507043652 56 351 6.1 10.4 0.00 2.31 2.31 96 1012.5
20260507043622 56 347 6.1 9.6 0.00 2.31 2.31 96 1012.4
20260507043334 56 336 6.1 9.6 0.00 2.31 2.31 96 1012.7
20260507043224 56 347 6.1 9.6 0.00 2.31 2.31 96 1012.7
20260507043131 56 343 6.1 9.6 0.00 2.31 2.31 96 1012.7
20260507043017 56 334 6.1 9.6 0.00 2.31 2.31 96 1012.7
20260507042923 56 334 7.0 9.6 0.00 2.31 2.31 96 1012.7
20260507042811 56 342 6.1 8.7 0.00 2.31 2.31 96 1012.5
20260507042718 56 360 5.2 8.7 0.00 2.31 2.31 96 1012.6
20260507042630 56 340 5.2 9.6 0.00 2.31 2.31 96 1012.6
20260507042517 56 355 3.5 9.6 0.00 2.31 2.31 96 1012.7
20260507042424 56 323 2.6 9.6 0.00 2.31 2.31 96 1012.7
20260507042312 56 355 2.6 9.6 0.00 2.31 2.31 96 1012.5
20260507042219 56 28 3.5 9.6 0.00 2.31 2.31 96 1012.4
20260507042146 56 355 5.2 9.6 0.00 2.31 2.31 96 1012.4
20260507042100 56 337 6.1 9.6 0.00 2.31 2.31 96 1012.4
20260507041813 56 25 4.3 9.6 0.01 2.31 2.31 96 1012.0
20260507041720 56 340 3.5 8.7 0.01 2.31 2.31 96 1012.0
20260507041627 56 23 3.5 8.7 0.01 2.31 2.31 96 1012.0
20260507041517 56 25 4.3 8.7 0.01 2.31 2.31 96 1012.0
20260507041425 56 21 5.2 8.7 0.01 2.31 2.31 96 1012.0
20260507041312 56 344 6.1 8.7 0.02 2.31 2.31 96 1012.1
20260507041221 56 11 6.1 8.7 0.02 2.31 2.31 96 1012.3
20260507041129 56 24 6.1 8.7 0.02 2.31 2.31 96 1012.3
20260507041020 56 37 5.2 8.7 0.03 2.31 2.31 96 1012.5
20260507040948 56 355 5.2 8.7 0.03 2.31 2.31 96 1012.5
20260507040815 56 360 4.3 8.7 0.04 2.31 2.31 96 1012.6
20260507040722 56 334 4.3 7.8 0.04 2.31 2.31 96 1012.6
20260507040610 56 337 5.2 7.8 0.04 2.31 2.31 96 1012.7
20260507040544 56 355 5.2 7.8 0.04 2.31 2.31 96 1012.7
20260507040318 56 5 5.2 7.8 0.04 2.31 2.31 96 1012.7
20260507040224 56 360 5.2 7.8 0.04 2.31 2.31 96 1012.7
20260507040111 56 342 5.2 7.8 0.04 2.31 2.31 96 1012.8
20260507040018 56 355 4.3 7.8 0.04 2.31 2.31 96 1012.8
20260507035925 56 328 4.3 7.8 0.04 2.31 2.31 96 1012.8
20260507035836 56 355 5.2 7.8 0.04 2.31 2.31 96 1012.5
20260507035722 56 18 5.2 8.7 0.04 2.31 2.31 96 1012.5
20260507035611 56 19 5.2 8.7 0.04 2.31 2.31 96 1012.3
20260507035518 56 9 5.2 8.7 0.04 2.31 2.31 96 1012.3
20260507035426 56 9 5.2 8.7 0.04 2.31 2.31 96 1012.3
20260507035315 56 10 5.2 9.6 0.04 2.31 2.31 96 1012.1
20260507035226 56 42 5.2 9.6 0.04 2.31 2.31 96 1012.1
20260507035134 56 10 5.2 9.6 0.04 2.31 2.31 96 1011.9
20260507035105 56 5 6.1 9.6 0.04 2.31 2.31 96 1012.0
20260507034819 56 31 5.2 10.4 0.04 2.31 2.31 96 1012.2
20260507034711 56 355 5.2 10.4 0.04 2.31 2.31 96 1012.2
20260507034619 56 347 5.2 10.4 0.04 2.31 2.31 96 1012.2
20260507034528 56 11 6.1 10.4 0.04 2.31 2.31 96 1012.2
20260507034415 56 5 5.2 10.4 0.04 2.31 2.31 96 1012.2
20260507034322 56 13 4.3 10.4 0.04 2.31 2.31 96 1012.2
20260507034229 56 22 5.2 10.4 0.04 2.31 2.31 96 1012.2
20260507034120 56 355 7.0 10.4 0.04 2.31 2.31 96 1012.2
20260507034027 56 19 6.1 10.4 0.04 2.31 2.31 96 1012.2
20260507033915 56 14 5.2 9.6 0.04 2.31 2.31 96 1012.3
20260507033823 56 5 4.3 8.7 0.04 2.31 2.31 96 1012.3
20260507033711 56 360 4.3 8.7 0.04 2.31 2.31 96 1012.4
20260507033622 56 351 5.2 8.7 0.04 2.31 2.31 96 1012.4
20260507033553 56 344 5.2 12.2 0.04 2.31 2.31 96 1012.4
20260507033327 56 344 5.2 12.2 0.05 2.31 2.31 96 1012.7
20260507033214 57 327 5.2 12.2 0.05 2.31 2.31 96 1012.8
20260507033122 57 5 5.2 12.2 0.05 2.31 2.31 96 1012.8
20260507033012 57 329 4.3 12.2 0.07 2.31 2.31 96 1012.9
20260507032919 57 346 5.2 12.2 0.08 2.31 2.31 96 1012.9
20260507032826 57 355 6.1 12.2 0.08 2.31 2.31 96 1012.9
20260507032713 57 360 7.0 12.2 0.08 2.31 2.31 96 1012.8
20260507032640 57 349 7.8 12.2 0.08 2.31 2.31 96 1012.8
20260507032527 57 340 6.1 11.3 0.08 2.31 2.31 96 1012.8
20260507032418 57 338 6.1 9.6 0.08 2.31 2.31 96 1012.6
20260507032345 57 360 6.1 11.3 0.08 2.31 2.31 96 1012.6
20260507032212 57 340 6.1 11.3 0.08 2.31 2.31 96 1012.2
20260507032119 57 340 6.1 11.3 0.08 2.31 2.31 96 1012.3
20260507032050 57 346 6.1 11.3 0.07 2.30 2.30 96 1012.3
20260507031828 57 339 5.2 11.3 0.07 2.30 2.30 96 1012.2
20260507031716 57 350 4.3 12.2 0.07 2.30 2.30 96 1012.2
20260507031622 57 355 6.1 12.2 0.07 2.30 2.30 96 1012.2
20260507031510 57 20 7.8 12.2 0.07 2.30 2.30 96 1012.0
20260507031419 57 20 7.8 12.2 0.07 2.30 2.30 96 1012.1
20260507031310 57 5 7.0 12.2 0.06 2.29 2.29 96 1012.0
20260507031218 57 345 7.0 12.2 0.06 2.29 2.29 96 1011.9
20260507031146 57 18 7.0 12.2 0.05 2.28 2.28 96 1011.9
20260507031033 57 13 7.8 12.2 0.05 2.28 2.28 96 1012.0
20260507030920 57 355 7.0 12.2 0.05 2.28 2.28 96 1012.3
20260507030828 57 19 7.0 10.4 0.04 2.27 2.27 96 1012.3
20260507030719 57 12 7.0 10.4 0.04 2.27 2.27 96 1012.3
20260507030626 57 38 7.0 10.4 0.04 2.27 2.27 96 1012.3
20260507030557 57 355 7.0 10.4 0.04 2.27 2.27 96 1012.3
20260507030311 57 20 7.0 10.4 0.04 2.27 2.27 96 1012.3
20260507030219 57 17 6.1 9.6 0.04 2.27 2.27 96 1012.3